Observation data for Amarillo 15 North Northwest on 11/08/2019      Previous  Date       Current Mesonet Observations  Soil Data  Daily Summary Page  Observations in Plain Language
KAM3 080600Z 23004KT 02/M01 A3045 RMK A01 T00231010  RH  078%=      5-min Rain = 0
KAM3 080601Z 22004KT 02/M01 A3045 RMK A01 T00231010  RH  079%=      5-min Rain = 0
KAM3 080602Z 22004KT 02/M01 A3045 RMK A01 T00231010  RH  078%=      5-min Rain = 0
KAM3 080603Z 23004KT 02/M01 A3045 RMK A01 T00231011  RH  078%=      5-min Rain = 0
KAM3 080604Z 23003KT 02/M01 A3045 RMK A01 T00231011  RH  078%=      5-min Rain = 0
KAM3 080605Z 23003KT 02/M01 A3045 RMK A01 T00231011  RH  078%=      5-min Rain = 0
KAM3 080606Z 23003KT 02/M01 A3045 RMK A01 T00231012  RH  078%=      5-min Rain = 0
KAM3 080607Z 23004KT 02/M01 A3045 RMK A01 T00231011  RH  078%=      5-min Rain = 0
KAM3 080608Z 23004KT 02/M01 A3045 RMK A01 T00231011  RH  078%=      5-min Rain = 0
KAM3 080609Z 23005KT 02/M01 A3045 RMK A01 T00231012  RH  078%=      5-min Rain = 0
KAM3 080610Z 23004KT 02/M01 A3045 RMK A01 T00231013  RH  077%=      5-min Rain = 0
KAM3 080611Z 22004KT 02/M01 A3045 RMK A01 T00231013  RH  078%=      5-min Rain = 0
KAM3 080612Z 22004KT 02/M01 A3045 RMK A01 T00231013  RH  078%=      5-min Rain = 0
KAM3 080613Z 23004KT 02/M01 A3045 RMK A01 T00231013  RH  078%=      5-min Rain = 0
KAM3 080614Z 22004KT 02/M01 A3045 RMK A01 T00231013  RH  077%=      5-min Rain = 0
KAM3 080615Z 22003KT 02/M01 A3045 RMK A01 T00231013  RH  077%=      5-min Rain = 0
KAM3 080616Z 22003KT 02/M01 A3045 RMK A01 T00231012  RH  078%=      5-min Rain = 0
KAM3 080617Z 22003KT 02/M01 A3045 RMK A01 T00231012  RH  078%=      5-min Rain = 0
KAM3 080618Z 22004KT 02/M01 A3045 RMK A01 T00221012  RH  078%=      5-min Rain = 0
KAM3 080619Z 22003KT 02/M01 A3045 RMK A01 T00231012  RH  078%=      5-min Rain = 0
KAM3 080620Z 22004KT 02/M01 A3045 RMK A01 T00231011  RH  078%=      5-min Rain = 0
KAM3 080621Z 22004KT 02/M01 A3045 RMK A01 T00231012  RH  078%=      5-min Rain = 0
KAM3 080622Z 22004KT 02/M01 A3045 RMK A01 T00231013  RH  077%=      5-min Rain = 0
KAM3 080623Z 22004KT 02/M01 A3045 RMK A01 T00231013  RH  077%=      5-min Rain = 0
KAM3 080624Z 22004KT 02/M01 A3045 RMK A01 T00231012  RH  077%=      5-min Rain = 0
KAM3 080625Z 22005KT 02/M01 A3045 RMK A01 T00231013  RH  077%=      5-min Rain = 0
KAM3 080626Z 22004KT 02/M01 A3044 RMK A01 T00231012  RH  077%=      5-min Rain = 0
KAM3 080627Z 22005KT 02/M01 A3044 RMK A01 T00231012  RH  077%=      5-min Rain = 0
KAM3 080628Z 22005KT 02/M01 A3044 RMK A01 T00231013  RH  077%=      5-min Rain = 0
KAM3 080629Z 22006KT 02/M02 A3044 RMK A01 T00231015  RH  076%=      5-min Rain = 0
KAM3 080630Z 21005KT 02/M02 A3044 RMK A01 T00231016  RH  076%=      5-min Rain = 0
KAM3 080631Z 21005KT 02/M02 A3044 RMK A01 T00231016  RH  075%=      5-min Rain = 0
KAM3 080632Z 21005KT 02/M02 A3044 RMK A01 T00231017  RH  075%=      5-min Rain = 0
KAM3 080633Z 20005KT 02/M02 A3044 RMK A01 T00231017  RH  075%=      5-min Rain = 0
KAM3 080634Z 21006KT 02/M02 A3044 RMK A01 T00231017  RH  075%=      5-min Rain = 0
KAM3 080635Z 20005KT 02/M02 A3044 RMK A01 T00231018  RH  074%=      5-min Rain = 0
KAM3 080636Z 20005KT 02/M02 A3044 RMK A01 T00231018  RH  075%=      5-min Rain = 0
KAM3 080637Z 20005KT 02/M02 A3044 RMK A01 T00231017  RH  075%=      5-min Rain = 0
KAM3 080638Z 20005KT 02/M02 A3044 RMK A01 T00231018  RH  074%=      5-min Rain = 0
KAM3 080639Z 21005KT 02/M02 A3044 RMK A01 T00231018  RH  074%=      5-min Rain = 0
KAM3 080640Z 21006KT 02/M02 A3044 RMK A01 T00231018  RH  074%=      5-min Rain = 0
KAM3 080641Z 21006KT 02/M02 A3044 RMK A01 T00231019  RH  074%=      5-min Rain = 0
KAM3 080642Z 21006KT 02/M02 A3044 RMK A01 T00231020  RH  074%=      5-min Rain = 0
KAM3 080643Z 21004KT 02/M02 A3044 RMK A01 T00231019  RH  074%=      5-min Rain = 0
KAM3 080644Z 22005KT 02/M02 A3044 RMK A01 T00231018  RH  074%=      5-min Rain = 0
KAM3 080645Z 22004KT 02/M02 A3044 RMK A01 T00231018  RH  074%=      5-min Rain = 0
KAM3 080646Z 22005KT 02/M02 A3044 RMK A01 T00231019  RH  074%=      5-min Rain = 0
KAM3 080647Z 22005KT 02/M02 A3044 RMK A01 T00231019  RH  074%=      5-min Rain = 0
KAM3 080648Z 22005KT 02/M02 A3044 RMK A01 T00231019  RH  074%=      5-min Rain = 0
KAM3 080649Z 22006KT 02/M02 A3044 RMK A01 T00231019  RH  074%=      5-min Rain = 0
KAM3 080650Z 21006KT 02/M02 A3044 RMK A01 T00231019  RH  074%=      5-min Rain = 0
KAM3 080651Z 22005KT 02/M02 A3044 RMK A01 T00231019  RH  074%=      5-min Rain = 0
KAM3 080652Z 22005KT 02/M02 A3044 RMK A01 T00231019  RH  074%=      5-min Rain = 0
KAM3 080653Z 22005KT 02/M02 A3044 RMK A01 T00231018  RH  074%=      5-min Rain = 0
KAM3 080654Z 22005KT 02/M02 A3044 RMK A01 T00231018  RH  074%=      5-min Rain = 0
KAM3 080655Z 22005KT 02/M02 A3044 RMK A01 T00231018  RH  074%=      5-min Rain = 0
KAM3 080656Z 22005KT 02/M02 A3044 RMK A01 T00231017  RH  075%=      5-min Rain = 0
KAM3 080657Z 22007KT 02/M02 A3044 RMK A01 T00231017  RH  075%=      5-min Rain = 0
KAM3 080658Z 22007KT 02/M02 A3044 RMK A01 T00231017  RH  074%=      5-min Rain = 0
KAM3 080659Z 21007KT 02/M02 A3044 RMK A01 T00231018  RH  074%=      5-min Rain = 0
KAM3 080700Z 22007KT 02/M02 A3044 RMK A01 T00231018  RH  074%=      5-min Rain = 0
KAM3 080701Z 21006KT 02/M02 A3044 RMK A01 T00241017  RH  074%=      5-min Rain = 0
KAM3 080702Z 21005KT 02/M02 A3044 RMK A01 T00231016  RH  075%=      5-min Rain = 0
KAM3 080703Z 21006KT 02/M02 A3044 RMK A01 T00231016  RH  075%=      5-min Rain = 0
KAM3 080704Z 21006KT 02/M02 A3044 RMK A01 T00231016  RH  075%=      5-min Rain = 0
KAM3 080705Z 21006KT 02/M02 A3044 RMK A01 T00241016  RH  075%=      5-min Rain = 0
KAM3 080706Z 21007KT 02/M02 A3044 RMK A01 T00241016  RH  075%=      5-min Rain = 0
KAM3 080707Z 21006KT 02/M02 A3044 RMK A01 T00241017  RH  075%=      5-min Rain = 0
KAM3 080708Z 21005KT 02/M02 A3044 RMK A01 T00241016  RH  075%=      5-min Rain = 0
KAM3 080709Z 21006KT 02/M02 A3044 RMK A01 T00231016  RH  075%=      5-min Rain = 0
KAM3 080710Z 21007KT 02/M02 A3044 RMK A01 T00231017  RH  075%=      5-min Rain = 0
KAM3 080711Z 22007KT 02/M02 A3044 RMK A01 T00241017  RH  074%=      5-min Rain = 0
KAM3 080712Z 21007KT 02/M02 A3044 RMK A01 T00231018  RH  074%=      5-min Rain = 0
KAM3 080713Z 21007KT 02/M02 A3044 RMK A01 T00231018  RH  074%=      5-min Rain = 0
KAM3 080714Z 21006KT 02/M02 A3044 RMK A01 T00241018  RH  074%=      5-min Rain = 0
KAM3 080715Z 21006KT 02/M02 A3043 RMK A01 T00231018  RH  074%=      5-min Rain = 0
KAM3 080716Z 21006KT 02/M02 A3043 RMK A01 T00231017  RH  074%=      5-min Rain = 0
KAM3 080717Z 22006KT 02/M02 A3043 RMK A01 T00231017  RH  074%=      5-min Rain = 0
KAM3 080718Z 22007KT 02/M02 A3043 RMK A01 T00241018  RH  074%=      5-min Rain = 0
KAM3 080719Z 21005KT 02/M02 A3043 RMK A01 T00231019  RH  074%=      5-min Rain = 0
KAM3 080720Z 21005KT 02/M02 A3043 RMK A01 T00231018  RH  074%=      5-min Rain = 0
KAM3 080721Z 21006KT 02/M02 A3043 RMK A01 T00241017  RH  075%=      5-min Rain = 0
KAM3 080722Z 21006KT 02/M02 A3043 RMK A01 T00241017  RH  074%=      5-min Rain = 0
KAM3 080723Z 21006KT 02/M02 A3043 RMK A01 T00241017  RH  074%=      5-min Rain = 0
KAM3 080724Z 21008KT 02/M02 A3043 RMK A01 T00241018  RH  074%=      5-min Rain = 0
KAM3 080725Z 21007KT 02/M02 A3043 RMK A01 T00241024  RH  071%=      5-min Rain = 0
KAM3 080726Z 21006KT 02/M02 A3043 RMK A01 T00241023  RH  071%=      5-min Rain = 0
KAM3 080727Z 21008KT 02/M02 A3043 RMK A01 T00241021  RH  072%=      5-min Rain = 0
KAM3 080728Z 21005KT 02/M02 A3043 RMK A01 T00241022  RH  071%=      5-min Rain = 0
KAM3 080729Z 23007KT 02/M02 A3043 RMK A01 T00241020  RH  073%=      5-min Rain = 0
KAM3 080730Z 22006KT 02/M02 A3043 RMK A01 T00241019  RH  073%=      5-min Rain = 0
KAM3 080731Z 22006KT 02/M02 A3043 RMK A01 T00241019  RH  073%=      5-min Rain = 0
KAM3 080732Z 22007KT 02/M02 A3043 RMK A01 T00241021  RH  072%=      5-min Rain = 0
KAM3 080733Z 22008KT 02/M02 A3043 RMK A01 T00241021  RH  072%=      5-min Rain = 0
KAM3 080734Z 22007KT 02/M02 A3043 RMK A01 T00241022  RH  072%=      5-min Rain = 0
KAM3 080735Z 22005KT 02/M02 A3043 RMK A01 T00231022  RH  072%=      5-min Rain = 0
KAM3 080736Z 22007KT 02/M02 A3043 RMK A01 T00231021  RH  072%=      5-min Rain = 0
KAM3 080737Z 22006KT 02/M02 A3043 RMK A01 T00241022  RH  072%=      5-min Rain = 0
KAM3 080738Z 22005KT 02/M02 A3043 RMK A01 T00231022  RH  072%=      5-min Rain = 0
KAM3 080739Z 22007KT 02/M02 A3043 RMK A01 T00241021  RH  072%=      5-min Rain = 0
KAM3 080740Z 22007KT 02/M02 A3043 RMK A01 T00241022  RH  072%=      5-min Rain = 0
KAM3 080741Z 22006KT 02/M02 A3043 RMK A01 T00231022  RH  072%=      5-min Rain = 0
KAM3 080742Z 22007KT 02/M02 A3043 RMK A01 T00231022  RH  072%=      5-min Rain = 0
KAM3 080743Z 22007KT 02/M02 A3043 RMK A01 T00241022  RH  072%=      5-min Rain = 0
KAM3 080744Z 22007KT 02/M02 A3043 RMK A01 T00241022  RH  072%=      5-min Rain = 0
KAM3 080745Z 22006KT 02/M02 A3043 RMK A01 T00231022  RH  072%=      5-min Rain = 0
KAM3 080746Z 22007KT 02/M02 A3043 RMK A01 T00231021  RH  072%=      5-min Rain = 0
KAM3 080747Z 22006KT 02/M02 A3043 RMK A01 T00231022  RH  072%=      5-min Rain = 0
KAM3 080748Z 22006KT 02/M02 A3043 RMK A01 T00231021  RH  073%=      5-min Rain = 0
KAM3 080749Z 23006KT 02/M02 A3043 RMK A01 T00231020  RH  073%=      5-min Rain = 0
KAM3 080750Z 23007KT 02/M02 A3043 RMK A01 T00231020  RH  073%=      5-min Rain = 0
KAM3 080751Z 22007KT 02/M02 A3043 RMK A01 T00231019  RH  073%=      5-min Rain = 0
KAM3 080752Z 22007KT 02/M02 A3043 RMK A01 T00231019  RH  073%=      5-min Rain = 0
KAM3 080753Z 22007KT 02/M02 A3043 RMK A01 T00241019  RH  073%=      5-min Rain = 0
KAM3 080754Z 23008KT 02/M02 A3043 RMK A01 T00231019  RH  073%=      5-min Rain = 0
KAM3 080755Z 22007KT 02/M02 A3043 RMK A01 T00231020  RH  073%=      5-min Rain = 0
KAM3 080756Z 22007KT 02/M02 A3043 RMK A01 T00241020  RH  073%=      5-min Rain = 0
KAM3 080757Z 23008KT 02/M02 A3043 RMK A01 T00231021  RH  072%=      5-min Rain = 0
KAM3 080758Z 23006KT 02/M02 A3043 RMK A01 T00241021  RH  073%=      5-min Rain = 0
KAM3 080759Z 22006KT 02/M02 A3043 RMK A01 T00231020  RH  073%=      5-min Rain = 0
KAM3 080800Z 22006KT 02/M02 A3043 RMK A01 T00231020  RH  073%=      5-min Rain = 0
KAM3 080801Z 22007KT 02/M02 A3043 RMK A01 T00231020  RH  073%=      5-min Rain = 0
KAM3 080802Z 23007KT 02/M02 A3043 RMK A01 T00241020  RH  073%=      5-min Rain = 0
KAM3 080803Z 23007KT 02/M02 A3043 RMK A01 T00231021  RH  073%=      5-min Rain = 0
KAM3 080804Z 23007KT 02/M02 A3043 RMK A01 T00231021  RH  072%=      5-min Rain = 0
KAM3 080805Z 23007KT 02/M02 A3043 RMK A01 T00241022  RH  072%=      5-min Rain = 0
KAM3 080806Z 23007KT 02/M02 A3043 RMK A01 T00241022  RH  072%=      5-min Rain = 0
KAM3 080807Z 23008KT 02/M02 A3043 RMK A01 T00241022  RH  072%=      5-min Rain = 0
KAM3 080808Z 22008KT 02/M02 A3043 RMK A01 T00231023  RH  072%=      5-min Rain = 0
KAM3 080809Z 22008KT 02/M02 A3043 RMK A01 T00231023  RH  071%=      5-min Rain = 0
KAM3 080810Z 22008KT 02/M02 A3043 RMK A01 T00231023  RH  071%=      5-min Rain = 0
KAM3 080811Z 22007KT 02/M02 A3043 RMK A01 T00241023  RH  071%=      5-min Rain = 0
KAM3 080812Z 22007KT 02/M02 A3043 RMK A01 T00231024  RH  071%=      5-min Rain = 0
KAM3 080813Z 23005KT 02/M02 A3043 RMK A01 T00231023  RH  071%=      5-min Rain = 0
KAM3 080814Z 23005KT 02/M02 A3043 RMK A01 T00231023  RH  072%=      5-min Rain = 0
KAM3 080815Z 22006KT 02/M02 A3042 RMK A01 T00231022  RH  072%=      5-min Rain = 0
KAM3 080816Z 22007KT 02/M02 A3042 RMK A01 T00231022  RH  072%=      5-min Rain = 0
KAM3 080817Z 22007KT 02/M02 A3042 RMK A01 T00231022  RH  072%=      5-min Rain = 0
KAM3 080818Z 22007KT 02/M02 A3042 RMK A01 T00231023  RH  072%=      5-min Rain = 0
KAM3 080819Z 21007KT 02/M02 A3042 RMK A01 T00231022  RH  072%=      5-min Rain = 0
KAM3 080820Z 22006KT 02/M02 A3042 RMK A01 T00231022  RH  072%=      5-min Rain = 0
KAM3 080821Z 22006KT 02/M02 A3042 RMK A01 T00231021  RH  072%=      5-min Rain = 0
KAM3 080822Z 22006KT 02/M02 A3042 RMK A01 T00231021  RH  073%=      5-min Rain = 0
KAM3 080823Z 22008KT 02/M02 A3042 RMK A01 T00231022  RH  072%=      5-min Rain = 0
KAM3 080824Z 22007KT 02/M02 A3042 RMK A01 T00231022  RH  072%=      5-min Rain = 0
KAM3 080825Z 23007KT 02/M02 A3042 RMK A01 T00231022  RH  072%=      5-min Rain = 0
KAM3 080826Z 23007KT 02/M02 A3042 RMK A01 T00231022  RH  072%=      5-min Rain = 0
KAM3 080827Z 22007KT 02/M02 A3042 RMK A01 T00231022  RH  072%=      5-min Rain = 0
KAM3 080828Z 22006KT 02/M02 A3042 RMK A01 T00231022  RH  072%=      5-min Rain = 0
KAM3 080829Z 22006KT 02/M02 A3042 RMK A01 T00221022  RH  073%=      5-min Rain = 0
KAM3 080830Z 21006KT 02/M02 A3042 RMK A01 T00231021  RH  073%=      5-min Rain = 0
KAM3 080831Z 22006KT 02/M02 A3042 RMK A01 T00231021  RH  073%=      5-min Rain = 0
KAM3 080832Z 22006KT 02/M02 A3042 RMK A01 T00221021  RH  073%=      5-min Rain = 0
KAM3 080833Z 22006KT 02/M02 A3042 RMK A01 T00221020  RH  073%=      5-min Rain = 0
KAM3 080834Z 22006KT 02/M02 A3042 RMK A01 T00221020  RH  074%=      5-min Rain = 0
KAM3 080835Z 22006KT 02/M02 A3042 RMK A01 T00221020  RH  074%=      5-min Rain = 0
KAM3 080836Z 22006KT 02/M02 A3042 RMK A01 T00221019  RH  074%=      5-min Rain = 0
KAM3 080837Z 22008KT 02/M02 A3041 RMK A01 T00221019  RH  074%=      5-min Rain = 0
KAM3 080838Z 22007KT 02/M02 A3041 RMK A01 T00221019  RH  074%=      5-min Rain = 0
KAM3 080839Z 23007KT 02/M02 A3041 RMK A01 T00221018  RH  075%=      5-min Rain = 0
KAM3 080840Z 22008KT 02/M02 A3041 RMK A01 T00221019  RH  075%=      5-min Rain = 0
KAM3 080841Z 23008KT 02/M02 A3041 RMK A01 T00221019  RH  074%=      5-min Rain = 0
KAM3 080842Z 22008KT 02/M02 A3041 RMK A01 T00221019  RH  074%=      5-min Rain = 0
KAM3 080843Z 22008KT 02/M02 A3041 RMK A01 T00221019  RH  075%=      5-min Rain = 0
KAM3 080844Z 21008KT 02/M02 A3041 RMK A01 T00221018  RH  075%=      5-min Rain = 0
KAM3 080845Z 22008KT 02/M02 A3041 RMK A01 T00221017  RH  075%=      5-min Rain = 0
KAM3 080846Z 22009KT 02/M02 A3041 RMK A01 T00221017  RH  076%=      5-min Rain = 0
KAM3 080847Z 21010KT 02/M02 A3041 RMK A01 T00221017  RH  076%=      5-min Rain = 0
KAM3 080848Z 21009KT 02/M02 A3041 RMK A01 T00211016  RH  076%=      5-min Rain = 0
KAM3 080849Z 21008KT 02/M02 A3041 RMK A01 T00211016  RH  077%=      5-min Rain = 0
KAM3 080850Z 22007KT 02/M02 A3041 RMK A01 T00211015  RH  077%=      5-min Rain = 0
KAM3 080851Z 21008KT 02/M02 A3041 RMK A01 T00211015  RH  077%=      5-min Rain = 0
KAM3 080852Z 21008KT 02/M01 A3041 RMK A01 T00211014  RH  077%=      5-min Rain = 0
KAM3 080853Z 22006KT 02/M01 A3041 RMK A01 T00211014  RH  078%=      5-min Rain = 0
KAM3 080854Z 22008KT 02/M01 A3041 RMK A01 T00211013  RH  078%=      5-min Rain = 0
KAM3 080855Z 22006KT 02/M01 A3041 RMK A01 T00211013  RH  078%=      5-min Rain = 0
KAM3 080856Z 22006KT 02/M01 A3041 RMK A01 T00211013  RH  078%=      5-min Rain = 0
KAM3 080857Z 23007KT 02/M01 A3041 RMK A01 T00211012  RH  079%=      5-min Rain = 0
KAM3 080858Z 22008KT 02/M01 A3041 RMK A01 T00211012  RH  079%=      5-min Rain = 0
KAM3 080859Z 23008KT 02/M01 A3041 RMK A01 T00211011  RH  079%=      5-min Rain = 0
KAM3 080900Z 23008KT 02/M01 A3041 RMK A01 T00211011  RH  079%=      5-min Rain = 0
KAM3 080901Z 23007KT 02/M01 A3041 RMK A01 T00211011  RH  080%=      5-min Rain = 0
KAM3 080902Z 23007KT 02/M01 A3041 RMK A01 T00211010  RH  080%=      5-min Rain = 0
KAM3 080903Z 23008KT 02/M01 A3041 RMK A01 T00211010  RH  080%=      5-min Rain = 0
KAM3 080904Z 22007KT 02/M01 A3041 RMK A01 T00211011  RH  080%=      5-min Rain = 0
KAM3 080905Z 22006KT 02/M01 A3041 RMK A01 T00211010  RH  080%=      5-min Rain = 0
KAM3 080906Z 23006KT 02/M01 A3041 RMK A01 T00211010  RH  080%=      5-min Rain = 0
KAM3 080907Z 22006KT 02/M01 A3041 RMK A01 T00211010  RH  080%=      5-min Rain = 0
KAM3 080908Z 22007KT 02/M01 A3041 RMK A01 T00211010  RH  080%=      5-min Rain = 0
KAM3 080909Z 23007KT 02/M01 A3041 RMK A01 T00211010  RH  080%=      5-min Rain = 0
KAM3 080910Z 23006KT 02/M01 A3041 RMK A01 T00211009  RH  080%=      5-min Rain = 0
KAM3 080911Z 22005KT 02/M01 A3041 RMK A01 T00211009  RH  081%=      5-min Rain = 0
KAM3 080912Z 22005KT 02/M01 A3041 RMK A01 T00211008  RH  081%=      5-min Rain = 0
KAM3 080913Z 22007KT 02/M01 A304 RMK A01 T00211008  RH  081%=      5-min Rain = 0
KAM3 080914Z 22006KT 02/M01 A304 RMK A01 T00211008  RH  081%=      5-min Rain = 0
KAM3 080915Z 21006KT 02/M01 A304 RMK A01 T00211008  RH  081%=      5-min Rain = 0
KAM3 080916Z 23006KT 02/M01 A304 RMK A01 T00211007  RH  082%=      5-min Rain = 0
KAM3 080917Z 23006KT 02/M01 A304 RMK A01 T00211007  RH  082%=      5-min Rain = 0
KAM3 080918Z 23005KT 02/M01 A304 RMK A01 T00201007  RH  082%=      5-min Rain = 0
KAM3 080919Z 23005KT 02/M01 A304 RMK A01 T00201007  RH  082%=      5-min Rain = 0
KAM3 080920Z 23006KT 02/M01 A304 RMK A01 T00201007  RH  082%=      5-min Rain = 0
KAM3 080921Z 23005KT 02/M01 A304 RMK A01 T00201007  RH  082%=      5-min Rain = 0
KAM3 080922Z 23004KT 02/M01 A304 RMK A01 T00201006  RH  083%=      5-min Rain = 0
KAM3 080923Z 24005KT 02/M01 A304 RMK A01 T00201006  RH  083%=      5-min Rain = 0
KAM3 080924Z 23006KT 02/M01 A304 RMK A01 T00201006  RH  083%=      5-min Rain = 0
KAM3 080925Z 24006KT 02/M01 A304 RMK A01 T00201006  RH  083%=      5-min Rain = 0
KAM3 080926Z 24006KT 02/M01 A304 RMK A01 T00201006  RH  083%=      5-min Rain = 0
KAM3 080927Z 24005KT 02/M01 A304 RMK A01 T00201006  RH  083%=      5-min Rain = 0
KAM3 080928Z 23005KT 02/M01 A304 RMK A01 T00201006  RH  083%=      5-min Rain = 0
KAM3 080929Z 23006KT 02/M01 A304 RMK A01 T00201006  RH  083%=      5-min Rain = 0
KAM3 080930Z 23006KT 02/M01 A304 RMK A01 T00201006  RH  083%=      5-min Rain = 0
KAM3 080931Z 23006KT 02/M01 A304 RMK A01 T00201006  RH  083%=      5-min Rain = 0
KAM3 080932Z 23005KT 02/M01 A304 RMK A01 T00201006  RH  083%=      5-min Rain = 0
KAM3 080933Z 22005KT 02/M01 A304 RMK A01 T00191007  RH  083%=      5-min Rain = 0
KAM3 080934Z 22007KT 02/M01 A304 RMK A01 T00191006  RH  083%=      5-min Rain = 0
KAM3 080935Z 22006KT 02/M01 A304 RMK A01 T00191006  RH  083%=      5-min Rain = 0
KAM3 080936Z 22006KT 02/M01 A304 RMK A01 T00191006  RH  083%=      5-min Rain = 0
KAM3 080937Z 22005KT 02/M01 A304 RMK A01 T00191006  RH  084%=      5-min Rain = 0
KAM3 080938Z 24005KT 02/M01 A304 RMK A01 T00191006  RH  084%=      5-min Rain = 0
KAM3 080939Z 23005KT 02/M01 A304 RMK A01 T00191005  RH  084%=      5-min Rain = 0
KAM3 080940Z 23005KT 02/M01 A304 RMK A01 T00191005  RH  084%=      5-min Rain = 0
KAM3 080941Z 23004KT 02/M00 A304 RMK A01 T00191004  RH  085%=      5-min Rain = 0
KAM3 080942Z 23005KT 02/M00 A304 RMK A01 T00191004  RH  085%=      5-min Rain = 0
KAM3 080943Z 23006KT 02/M00 A304 RMK A01 T00191004  RH  085%=      5-min Rain = 0
KAM3 080944Z 23005KT 02/M00 A304 RMK A01 T00191004  RH  085%=      5-min Rain = 0
KAM3 080945Z 22005KT 02/M00 A304 RMK A01 T00191004  RH  085%=      5-min Rain = 0
KAM3 080946Z 23004KT 02/M00 A304 RMK A01 T00191003  RH  085%=      5-min Rain = 0
KAM3 080947Z 23005KT 02/M00 A304 RMK A01 T00191003  RH  086%=      5-min Rain = 0
KAM3 080948Z 22005KT 02/M00 A304 RMK A01 T00191003  RH  086%=      5-min Rain = 0
KAM3 080949Z 22004KT 02/M00 A304 RMK A01 T00191002  RH  086%=      5-min Rain = 0
KAM3 080950Z 22005KT 02/M00 A304 RMK A01 T00191001  RH  086%=      5-min Rain = 0
KAM3 080951Z 21005KT 02/M00 A304 RMK A01 T00191001  RH  087%=      5-min Rain = 0
KAM3 080952Z 22006KT 02/M00 A304 RMK A01 T00191001  RH  087%=      5-min Rain = 0
KAM3 080953Z 22005KT 02/M00 A3039 RMK A01 T00181001  RH  087%=      5-min Rain = 0
KAM3 080954Z 22005KT 02/M00 A3039 RMK A01 T00181001  RH  087%=      5-min Rain = 0
KAM3 080955Z 21005KT 02/00 A3039 RMK A01 T00190000  RH  088%=      5-min Rain = 0
KAM3 080956Z 21005KT 02/00 A3039 RMK A01 T001800-0  RH  088%=      5-min Rain = 0
KAM3 080957Z 21005KT 02/00 A3039 RMK A01 T00180000  RH  088%=      5-min Rain = 0
KAM3 080958Z 21005KT 02/00 A3039 RMK A01 T00180001  RH  088%=      5-min Rain = 0
KAM3 080959Z 21004KT 02/00 A3039 RMK A01 T00180001  RH  088%=      5-min Rain = 0
KAM3 081000Z 21004KT 02/00 A3039 RMK A01 T00190002  RH  089%=      5-min Rain = 0
KAM3 081001Z 21004KT 02/00 A3039 RMK A01 T00190002  RH  089%=      5-min Rain = 0
KAM3 081002Z 21004KT 02/00 A3039 RMK A01 T00190002  RH  089%=      5-min Rain = 0
KAM3 081003Z 20004KT 02/00 A3039 RMK A01 T00180002  RH  089%=      5-min Rain = 0
KAM3 081004Z 20004KT 02/00 A3039 RMK A01 T00180003  RH  089%=      5-min Rain = 0
KAM3 081005Z 20004KT 02/00 A3039 RMK A01 T00190003  RH  090%=      5-min Rain = 0
KAM3 081006Z 20004KT 02/00 A3039 RMK A01 T00180003  RH  090%=      5-min Rain = 0
KAM3 081007Z 20004KT 02/00 A3039 RMK A01 T00180004  RH  090%=      5-min Rain = 0
KAM3 081008Z 20004KT 02/00 A3039 RMK A01 T00180004  RH  090%=      5-min Rain = 0
KAM3 081009Z 20004KT 02/00 A3039 RMK A01 T00180004  RH  090%=      5-min Rain = 0
KAM3 081010Z 22003KT 02/00 A3039 RMK A01 T00180004  RH  090%=      5-min Rain = 0
KAM3 081011Z 21004KT 02/01 A3039 RMK A01 T00190005  RH  091%=      5-min Rain = 0
KAM3 081012Z 21004KT 02/01 A3039 RMK A01 T00190005  RH  091%=      5-min Rain = 0
KAM3 081013Z 21004KT 02/01 A3039 RMK A01 T00190006  RH  091%=      5-min Rain = 0
KAM3 081014Z 22003KT 02/01 A3039 RMK A01 T00190006  RH  091%=      5-min Rain = 0
KAM3 081015Z 21004KT 02/01 A3039 RMK A01 T00190007  RH  092%=      5-min Rain = 0
KAM3 081016Z 20004KT 02/01 A3039 RMK A01 T00190007  RH  091%=      5-min Rain = 0
KAM3 081017Z 22005KT 02/01 A3039 RMK A01 T00190007  RH  092%=      5-min Rain = 0
KAM3 081018Z 22005KT 02/01 A3039 RMK A01 T00190007  RH  092%=      5-min Rain = 0
KAM3 081019Z 21005KT 02/01 A3039 RMK A01 T00190008  RH  092%=      5-min Rain = 0
KAM3 081020Z 22004KT 02/01 A3039 RMK A01 T00190008  RH  093%=      5-min Rain = 0
KAM3 081021Z 22005KT 02/01 A3039 RMK A01 T00190009  RH  093%=      5-min Rain = 0
KAM3 081022Z 21006KT 02/01 A3039 RMK A01 T00190010  RH  094%=      5-min Rain = 0
KAM3 081023Z 20006KT 02/01 A3039 RMK A01 T00190011  RH  094%=      5-min Rain = 0
KAM3 081024Z 20005KT 02/01 A3039 RMK A01 T00190011  RH  095%=      5-min Rain = 0
KAM3 081025Z 20005KT 02/01 A3039 RMK A01 T00190012  RH  095%=      5-min Rain = 0
KAM3 081026Z 21006KT 02/01 A3039 RMK A01 T00190012  RH  095%=      5-min Rain = 0
KAM3 081027Z 21006KT 02/01 A3039 RMK A01 T00190012  RH  095%=      5-min Rain = 0
KAM3 081028Z 20005KT 02/01 A3039 RMK A01 T00200013  RH  095%=      5-min Rain = 0
KAM3 081029Z 20006KT 02/01 A3039 RMK A01 T00190013  RH  096%=      5-min Rain = 0
KAM3 081030Z 20006KT 02/01 A3039 RMK A01 T00190013  RH  096%=      5-min Rain = 0
KAM3 081031Z 20005KT 02/01 A3039 RMK A01 T00200013  RH  096%=      5-min Rain = 0
KAM3 081032Z 20005KT 02/01 A3039 RMK A01 T00200014  RH  096%=      5-min Rain = 0
KAM3 081033Z 19006KT 02/01 A3039 RMK A01 T00200014  RH  096%=      5-min Rain = 0
KAM3 081034Z 19006KT 02/01 A3038 RMK A01 T00200013  RH  095%=      5-min Rain = 0
KAM3 081035Z 19005KT 02/01 A3038 RMK A01 T00200013  RH  095%=      5-min Rain = 0
KAM3 081036Z 19005KT 02/01 A3038 RMK A01 T00200013  RH  095%=      5-min Rain = 0
KAM3 081037Z 19005KT 02/01 A3038 RMK A01 T00200014  RH  095%=      5-min Rain = 0
KAM3 081038Z 19005KT 02/01 A3038 RMK A01 T00200014  RH  095%=      5-min Rain = 0
KAM3 081039Z 18004KT 02/01 A3038 RMK A01 T00200014  RH  096%=      5-min Rain = 0
KAM3 081040Z 18005KT 02/02 A3038 RMK A01 T00210015  RH  096%=      5-min Rain = 0
KAM3 081041Z 18006KT 02/01 A3038 RMK A01 T00210014  RH  096%=      5-min Rain = 0
KAM3 081042Z 18006KT 02/01 A3038 RMK A01 T00210014  RH  095%=      5-min Rain = 0
KAM3 081043Z 18006KT 02/01 A3038 RMK A01 T00210014  RH  095%=      5-min Rain = 0
KAM3 081044Z 17005KT 02/01 A3038 RMK A01 T00210014  RH  096%=      5-min Rain = 0
KAM3 081045Z 18005KT 02/02 A3037 RMK A01 T00210015  RH  096%=      5-min Rain = 0
KAM3 081046Z 17006KT 02/02 A3037 RMK A01 T00210015  RH  096%=      5-min Rain = 0
KAM3 081047Z 17005KT 02/02 A3037 RMK A01 T00210015  RH  096%=      5-min Rain = 0
KAM3 081048Z 17006KT 02/02 A3037 RMK A01 T00210016  RH  096%=      5-min Rain = 0
KAM3 081049Z 17008KT 02/02 A3037 RMK A01 T00220015  RH  096%=      5-min Rain = 0
KAM3 081050Z 17008KT 02/02 A3037 RMK A01 T00220015  RH  096%=      5-min Rain = 0
KAM3 081051Z 17007KT 02/02 A3037 RMK A01 T00220016  RH  096%=      5-min Rain = 0
KAM3 081052Z 16007KT 02/02 A3037 RMK A01 T00220017  RH  097%=      5-min Rain = 0
KAM3 081053Z 17008KT 02/02 A3037 RMK A01 T00220018  RH  097%=      5-min Rain = 0
KAM3 081054Z 17008KT 02/02 A3037 RMK A01 T00220019  RH  098%=      5-min Rain = 0
KAM3 081055Z 17008KT 02/02 A3037 RMK A01 T00220020  RH  099%=      5-min Rain = 0
KAM3 081056Z 16008KT 02/02 A3037 RMK A01 T00220021  RH  100%=      5-min Rain = 0
KAM3 081057Z 17007KT 02/02 A3037 RMK A01 T00210021  RH  100%=      5-min Rain = 0
KAM3 081058Z 17008KT 02/02 A3037 RMK A01 T00220022  RH  100%=      5-min Rain = 0
KAM3 081059Z 17008KT 02/02 A3037 RMK A01 T00220021  RH  100%=      5-min Rain = 0
KAM3 081100Z 17007KT 02/02 A3037 RMK A01 T00210021  RH  100%=      5-min Rain = 0
KAM3 081101Z 17007KT 02/02 A3037 RMK A01 T00210021  RH  100%=      5-min Rain = 0
KAM3 081102Z 17008KT 02/02 A3037 RMK A01 T00210021  RH  100%=      5-min Rain = 0
KAM3 081103Z 17008KT 02/02 A3037 RMK A01 T00210021  RH  100%=      5-min Rain = 0
KAM3 081104Z 18008KT 02/02 A3037 RMK A01 T00210020  RH  100%=      5-min Rain = 0
KAM3 081105Z 17008KT 02/02 A3037 RMK A01 T00210020  RH  100%=      5-min Rain = 0
KAM3 081106Z 17008KT 02/02 A3037 RMK A01 T00200020  RH  100%=      5-min Rain = 0
KAM3 081107Z 17007KT 02/02 A3037 RMK A01 T00200020  RH  100%=      5-min Rain = 0
KAM3 081108Z 17008KT 02/02 A3037 RMK A01 T00200020  RH  100%=      5-min Rain = 0
KAM3 081109Z 17008KT 02/02 A3037 RMK A01 T00200020  RH  100%=      5-min Rain = 0
KAM3 081110Z 17007KT 02/02 A3037 RMK A01 T00200020  RH  100%=      5-min Rain = 0
KAM3 081111Z 17006KT 02/02 A3037 RMK A01 T00200020  RH  100%=      5-min Rain = 0
KAM3 081112Z 17006KT 02/02 A3037 RMK A01 T00200020  RH  100%=      5-min Rain = 0
KAM3 081113Z 16005KT 02/02 A3037 RMK A01 T00200020  RH  100%=      5-min Rain = 0
KAM3 081114Z 16007KT 02/02 A3037 RMK A01 T00200020  RH  100%=      5-min Rain = 0
KAM3 081115Z 16006KT 02/02 A3037 RMK A01 T00200020  RH  100%=      5-min Rain = 0
KAM3 081116Z 15006KT 02/02 A3037 RMK A01 T00200020  RH  100%=      5-min Rain = 0
KAM3 081117Z 16007KT 02/02 A3037 RMK A01 T00200020  RH  100%=      5-min Rain = 0
KAM3 081118Z 15006KT 02/02 A3037 RMK A01 T00200020  RH  100%=      5-min Rain = 0
KAM3 081119Z 16006KT 02/02 A3037 RMK A01 T00200020  RH  100%=      5-min Rain = 0
KAM3 081120Z 16005KT 02/02 A3037 RMK A01 T00200020  RH  100%=      5-min Rain = 0
KAM3 081121Z 16007KT 02/02 A3037 RMK A01 T00200020  RH  100%=      5-min Rain = 0
KAM3 081122Z 16006KT 02/02 A3037 RMK A01 T00200020  RH  100%=      5-min Rain = 0
KAM3 081123Z 16006KT 02/02 A3037 RMK A01 T00200020  RH  100%=      5-min Rain = 0
KAM3 081124Z 16006KT 02/02 A3036 RMK A01 T00200020  RH  100%=      5-min Rain = 0
KAM3 081125Z 16008KT 02/02 A3036 RMK A01 T00200020  RH  100%=      5-min Rain = 0
KAM3 081126Z 16008KT 02/02 A3036 RMK A01 T00200020  RH  100%=      5-min Rain = 0
KAM3 081127Z 16007KT 02/02 A3036 RMK A01 T00200020  RH  100%=      5-min Rain = 0
KAM3 081128Z 16006KT 02/02 A3036 RMK A01 T00200020  RH  100%=      5-min Rain = 0
KAM3 081129Z 16005KT 02/02 A3036 RMK A01 T00200020  RH  100%=      5-min Rain = 0
KAM3 081130Z 16006KT 02/02 A3036 RMK A01 T00200020  RH  100%=      5-min Rain = 0
KAM3 081131Z 16006KT 02/02 A3036 RMK A01 T00200020  RH  100%=      5-min Rain = 0
KAM3 081132Z 16007KT 02/02 A3036 RMK A01 T00200020  RH  100%=      5-min Rain = 0
KAM3 081133Z 15006KT 02/02 A3036 RMK A01 T00200020  RH  100%=      5-min Rain = 0
KAM3 081134Z 16006KT 02/02 A3036 RMK A01 T00200020  RH  100%=      5-min Rain = 0
KAM3 081135Z 16005KT 02/02 A3036 RMK A01 T00200020  RH  100%=      5-min Rain = 0
KAM3 081136Z 17005KT 02/02 A3036 RMK A01 T00200020  RH  100%=      5-min Rain = 0
KAM3 081137Z 16004KT 02/02 A3036 RMK A01 T00200020  RH  100%=      5-min Rain = 0
KAM3 081138Z 16004KT 02/02 A3037 RMK A01 T00200020  RH  100%=      5-min Rain = 0
KAM3 081139Z 16006KT 02/02 A3037 RMK A01 T00200020  RH  100%=      5-min Rain = 0
KAM3 081140Z 16005KT 02/02 A3037 RMK A01 T00200020  RH  100%=      5-min Rain = 0
KAM3 081141Z 15004KT 02/02 A3037 RMK A01 T00200019  RH  100%=      5-min Rain = 0
KAM3 081142Z 17004KT 02/02 A3037 RMK A01 T00200020  RH  100%=      5-min Rain = 0
KAM3 081143Z 15003KT 02/02 A3037 RMK A01 T00200020  RH  100%=      5-min Rain = 0
KAM3 081144Z 16004KT 02/02 A3037 RMK A01 T00200020  RH  100%=      5-min Rain = 0
KAM3 081145Z 15002KT 02/02 A3037 RMK A01 T00200020  RH  100%=      5-min Rain = 0
KAM3 081146Z 12003KT 02/02 A3037 RMK A01 T00200020  RH  100%=      5-min Rain = 0
KAM3 081147Z 14003KT 02/02 A3037 RMK A01 T00200020  RH  100%=      5-min Rain = 0
KAM3 081148Z 14003KT 02/02 A3037 RMK A01 T00200020  RH  100%=      5-min Rain = 0
KAM3 081149Z 15003KT 02/02 A3037 RMK A01 T00200020  RH  100%=      5-min Rain = 0
KAM3 081150Z 14003KT 02/02 A3037 RMK A01 T00200020  RH  100%=      5-min Rain = 0
KAM3 081151Z 15003KT 02/02 A3037 RMK A01 T00200020  RH  100%=      5-min Rain = 0
KAM3 081152Z 13002KT 02/02 A3037 RMK A01 T00200020  RH  100%=      5-min Rain = 0
KAM3 081153Z 12001KT 02/02 A3037 RMK A01 T00210020  RH  100%=      5-min Rain = 0
KAM3 081154Z 12002KT 02/02 A3037 RMK A01 T00200020  RH  100%=      5-min Rain = 0
KAM3 081155Z 14001KT 02/02 A3037 RMK A01 T00200020  RH  100%=      5-min Rain = 0
KAM3 081156Z 14000KT 02/02 A3037 RMK A01 T00200020  RH  100%=      5-min Rain = 0
KAM3 081157Z 11001KT 02/02 A3037 RMK A01 T00210021  RH  100%=      5-min Rain = 0
KAM3 081158Z 12002KT 02/02 A3037 RMK A01 T00210021  RH  100%=      5-min Rain = 0
KAM3 081159Z 11002KT 02/02 A3037 RMK A01 T00210021  RH  100%=      5-min Rain = 0
KAM3 081200Z 11002KT 02/02 A3037 RMK A01 T00210021  RH  100%=      5-min Rain = 0
KAM3 081201Z 13002KT 02/02 A3038 RMK A01 T00210021  RH  100%=      5-min Rain = 0
KAM3 081202Z 14002KT 02/02 A3038 RMK A01 T00210021  RH  100%=      5-min Rain = 0
KAM3 081203Z 14001KT 02/02 A3038 RMK A01 T00210021  RH  100%=      5-min Rain = 0
KAM3 081204Z 13002KT 02/02 A3038 RMK A01 T00210021  RH  100%=      5-min Rain = 0
KAM3 081205Z 13002KT 02/02 A3038 RMK A01 T00210021  RH  100%=      5-min Rain = 0
KAM3 081206Z 13001KT 02/02 A3038 RMK A01 T00210021  RH  100%=      5-min Rain = 0
KAM3 081207Z 13001KT 02/02 A3038 RMK A01 T00210021  RH  100%=      5-min Rain = 0
KAM3 081208Z 13001KT 02/02 A3038 RMK A01 T00210021  RH  100%=      5-min Rain = 0
KAM3 081209Z 13001KT 02/02 A3038 RMK A01 T00210021  RH  100%=      5-min Rain = 0
KAM3 081210Z 13000KT 02/02 A3038 RMK A01 T00210021  RH  100%=      5-min Rain = 0
KAM3 081211Z 12001KT 02/02 A3038 RMK A01 T00210021  RH  100%=      5-min Rain = 0
KAM3 081212Z 11001KT 02/02 A3038 RMK A01 T00210021  RH  100%=      5-min Rain = 0
KAM3 081213Z 12002KT 02/02 A3038 RMK A01 T00210021  RH  100%=      5-min Rain = 0
KAM3 081214Z 13002KT 02/02 A3038 RMK A01 T00220022  RH  100%=      5-min Rain = 0
KAM3 081215Z 12002KT 02/02 A3038 RMK A01 T00220022  RH  100%=      5-min Rain = 0
KAM3 081216Z 14002KT 02/02 A3038 RMK A01 T00220022  RH  100%=      5-min Rain = 0
KAM3 081217Z 14002KT 02/02 A3038 RMK A01 T00220022  RH  100%=      5-min Rain = 0
KAM3 081218Z 15002KT 02/02 A3038 RMK A01 T00220021  RH  100%=      5-min Rain = 0
KAM3 081219Z 16003KT 02/02 A3038 RMK A01 T00220022  RH  100%=      5-min Rain = 0
KAM3 081220Z 16003KT 02/02 A3037 RMK A01 T00220022  RH  100%=      5-min Rain = 0
KAM3 081221Z 17002KT 02/02 A3037 RMK A01 T00220022  RH  100%=      5-min Rain = 0
KAM3 081222Z 17003KT 02/02 A3037 RMK A01 T00220022  RH  100%=      5-min Rain = 0
KAM3 081223Z 15003KT 02/02 A3037 RMK A01 T00220022  RH  100%=      5-min Rain = 0
KAM3 081224Z 15003KT 02/02 A3037 RMK A01 T00220022  RH  100%=      5-min Rain = 0
KAM3 081225Z 14004KT 02/02 A3037 RMK A01 T00220022  RH  100%=      5-min Rain = 0
KAM3 081226Z 15004KT 02/02 A3037 RMK A01 T00230023  RH  100%=      5-min Rain = 0
KAM3 081227Z 15004KT 02/02 A3037 RMK A01 T00220022  RH  100%=      5-min Rain = 0
KAM3 081228Z 15004KT 02/02 A3037 RMK A01 T00220022  RH  100%=      5-min Rain = 0
KAM3 081229Z 14003KT 02/02 A3037 RMK A01 T00230022  RH  100%=      5-min Rain = 0
KAM3 081230Z 13003KT 02/02 A3037 RMK A01 T00230023  RH  100%=      5-min Rain = 0
KAM3 081231Z 13002KT 02/02 A3038 RMK A01 T00230023  RH  100%=      5-min Rain = 0
KAM3 081232Z 13002KT 02/02 A3038 RMK A01 T00230023  RH  100%=      5-min Rain = 0
KAM3 081233Z 13002KT 02/02 A3038 RMK A01 T00230023  RH  100%=      5-min Rain = 0
KAM3 081234Z 14002KT 02/02 A3038 RMK A01 T00240023  RH  100%=      5-min Rain = 0
KAM3 081235Z 14003KT 02/02 A3038 RMK A01 T00240023  RH  100%=      5-min Rain = 0
KAM3 081236Z 14003KT 02/02 A3037 RMK A01 T00240024  RH  100%=      5-min Rain = 0
KAM3 081237Z 14004KT 02/02 A3037 RMK A01 T00240024  RH  100%=      5-min Rain = 0
KAM3 081238Z 15003KT 02/02 A3037 RMK A01 T00240024  RH  100%=      5-min Rain = 0
KAM3 081239Z 15003KT 02/02 A3037 RMK A01 T00240024  RH  100%=      5-min Rain = 0
KAM3 081240Z 15003KT 02/02 A3037 RMK A01 T00240024  RH  100%=      5-min Rain = 0
KAM3 081241Z 15004KT 02/02 A3037 RMK A01 T00240024  RH  100%=      5-min Rain = 0
KAM3 081242Z 15004KT 03/03 A3037 RMK A01 T00250025  RH  100%=      5-min Rain = 0
KAM3 081243Z 15004KT 03/03 A3037 RMK A01 T00250025  RH  100%=      5-min Rain = 0
KAM3 081244Z 15004KT 03/03 A3037 RMK A01 T00250025  RH  100%=      5-min Rain = 0
KAM3 081245Z 15004KT 03/03 A3037 RMK A01 T00250025  RH  100%=      5-min Rain = 0
KAM3 081246Z 15004KT 03/03 A3037 RMK A01 T00250025  RH  100%=      5-min Rain = 0
KAM3 081247Z 15004KT 03/03 A3037 RMK A01 T00250025  RH  100%=      5-min Rain = 0
KAM3 081248Z 15004KT 03/03 A3037 RMK A01 T00250025  RH  100%=      5-min Rain = 0
KAM3 081249Z 15004KT 03/03 A3037 RMK A01 T00250025  RH  100%=      5-min Rain = 0
KAM3 081250Z 15004KT 03/03 A3037 RMK A01 T00250025  RH  100%=      5-min Rain = 0
KAM3 081251Z 15004KT 03/03 A3037 RMK A01 T00250025  RH  100%=      5-min Rain = 0
KAM3 081252Z 15003KT 03/03 A3037 RMK A01 T00250025  RH  100%=      5-min Rain = 0
KAM3 081253Z 15004KT 03/03 A3037 RMK A01 T00250025  RH  100%=      5-min Rain = 0
KAM3 081254Z 15003KT 03/03 A3037 RMK A01 T00250025  RH  100%=      5-min Rain = 0
KAM3 081255Z 16004KT 03/03 A3037 RMK A01 T00260026  RH  100%=      5-min Rain = 0
KAM3 081256Z 16004KT 03/03 A3037 RMK A01 T00260026  RH  100%=      5-min Rain = 0
KAM3 081257Z 16004KT 03/03 A3037 RMK A01 T00260026  RH  100%=      5-min Rain = 0
KAM3 081258Z 15004KT 03/03 A3036 RMK A01 T00260026  RH  100%=      5-min Rain = 0
KAM3 081259Z 15005KT 03/03 A3036 RMK A01 T00260026  RH  100%=      5-min Rain = 0
KAM3 081300Z 15004KT 03/03 A3036 RMK A01 T00260026  RH  100%=      5-min Rain = 0
KAM3 081301Z 15004KT 03/03 A3036 RMK A01 T00260026  RH  100%=      5-min Rain = 0
KAM3 081302Z 15005KT 03/03 A3036 RMK A01 T00260026  RH  100%=      5-min Rain = 0
KAM3 081303Z 16004KT 03/03 A3036 RMK A01 T00260026  RH  100%=      5-min Rain = 0
KAM3 081304Z 15004KT 03/03 A3036 RMK A01 T00270027  RH  100%=      5-min Rain = 0
KAM3 081305Z 15003KT 03/03 A3036 RMK A01 T00270027  RH  100%=      5-min Rain = 0
KAM3 081306Z 14003KT 03/03 A3036 RMK A01 T00270027  RH  100%=      5-min Rain = 0
KAM3 081307Z 15003KT 03/03 A3036 RMK A01 T00270027  RH  100%=      5-min Rain = 0
KAM3 081308Z 15003KT 03/03 A3036 RMK A01 T00270027  RH  100%=      5-min Rain = 0
KAM3 081309Z 15004KT 03/03 A3036 RMK A01 T00270027  RH  100%=      5-min Rain = 0
KAM3 081310Z 16004KT 03/03 A3036 RMK A01 T00270027  RH  100%=      5-min Rain = 0
KAM3 081311Z 15004KT 03/03 A3036 RMK A01 T00280028  RH  100%=      5-min Rain = 0
KAM3 081312Z 16003KT 03/03 A3036 RMK A01 T00280028  RH  100%=      5-min Rain = 0
KAM3 081313Z 16003KT 03/03 A3036 RMK A01 T00270027  RH  100%=      5-min Rain = 0
KAM3 081314Z 16003KT 03/03 A3036 RMK A01 T00280028  RH  100%=      5-min Rain = 0
KAM3 081315Z 16003KT 03/03 A3036 RMK A01 T00280028  RH  100%=      5-min Rain = 0
KAM3 081316Z 16004KT 03/03 A3036 RMK A01 T00280028  RH  100%=      5-min Rain = 0
KAM3 081317Z 16004KT 03/03 A3036 RMK A01 T00280028  RH  100%=      5-min Rain = 0
KAM3 081318Z 16004KT 03/03 A3036 RMK A01 T00290028  RH  100%=      5-min Rain = 0
KAM3 081319Z 16003KT 03/03 A3036 RMK A01 T00290029  RH  100%=      5-min Rain = 0
KAM3 081320Z 16004KT 03/03 A3036 RMK A01 T00280028  RH  100%=      5-min Rain = 0
KAM3 081321Z 16004KT 03/03 A3036 RMK A01 T00290029  RH  100%=      5-min Rain = 0
KAM3 081322Z 16004KT 03/03 A3036 RMK A01 T00290029  RH  100%=      5-min Rain = 0
KAM3 081323Z 16004KT 03/03 A3036 RMK A01 T00290029  RH  100%=      5-min Rain = 0
KAM3 081324Z 16003KT 03/03 A3036 RMK A01 T00290029  RH  100%=      5-min Rain = 0
KAM3 081325Z 16004KT 03/03 A3036 RMK A01 T00290029  RH  100%=      5-min Rain = 0
KAM3 081326Z 16003KT 03/03 A3036 RMK A01 T00290029  RH  100%=      5-min Rain = 0
KAM3 081327Z 16004KT 03/03 A3036 RMK A01 T00290029  RH  100%=      5-min Rain = 0
KAM3 081328Z 16004KT 03/03 A3036 RMK A01 T00300030  RH  100%=      5-min Rain = 0
KAM3 081329Z 16005KT 03/03 A3036 RMK A01 T00300030  RH  100%=      5-min Rain = 0
KAM3 081330Z 16004KT 03/03 A3036 RMK A01 T00300030  RH  100%=      5-min Rain = 0
KAM3 081331Z 16004KT 03/03 A3036 RMK A01 T00310031  RH  100%=      5-min Rain = 0
KAM3 081332Z 16004KT 03/03 A3036 RMK A01 T00310031  RH  100%=      5-min Rain = 0
KAM3 081333Z 17004KT 03/03 A3036 RMK A01 T00310031  RH  100%=      5-min Rain = 0
KAM3 081334Z 17004KT 03/03 A3036 RMK A01 T00310031  RH  100%=      5-min Rain = 0
KAM3 081335Z 17004KT 03/03 A3036 RMK A01 T00320032  RH  100%=      5-min Rain = 0
KAM3 081336Z 17004KT 03/03 A3036 RMK A01 T00320032  RH  100%=      5-min Rain = 0
KAM3 081337Z 16004KT 03/03 A3036 RMK A01 T00320032  RH  100%=      5-min Rain = 0
KAM3 081338Z 15003KT 03/03 A3036 RMK A01 T00330032  RH  100%=      5-min Rain = 0
KAM3 081339Z 15003KT 03/03 A3036 RMK A01 T00330033  RH  100%=      5-min Rain = 0
KAM3 081340Z 17003KT 03/03 A3036 RMK A01 T00330033  RH  100%=      5-min Rain = 0
KAM3 081341Z 17003KT 03/03 A3036 RMK A01 T00330033  RH  100%=      5-min Rain = 0
KAM3 081342Z 16003KT 03/03 A3036 RMK A01 T00340033  RH  100%=      5-min Rain = 0
KAM3 081343Z 17004KT 03/03 A3036 RMK A01 T00340034  RH  100%=      5-min Rain = 0
KAM3 081344Z 17004KT 03/03 A3036 RMK A01 T00340034  RH  100%=      5-min Rain = 0
KAM3 081345Z 18003KT 03/03 A3036 RMK A01 T00340034  RH  100%=      5-min Rain = 0
KAM3 081346Z 17004KT 04/04 A3036 RMK A01 T00350035  RH  100%=      5-min Rain = 0
KAM3 081347Z 18003KT 04/04 A3036 RMK A01 T00350035  RH  100%=      5-min Rain = 0
KAM3 081348Z 18004KT 04/04 A3036 RMK A01 T00350035  RH  100%=      5-min Rain = 0
KAM3 081349Z 18005KT 04/04 A3036 RMK A01 T00360036  RH  100%=      5-min Rain = 0
KAM3 081350Z 17005KT 04/04 A3036 RMK A01 T00360036  RH  100%=      5-min Rain = 0
KAM3 081351Z 19004KT 04/04 A3036 RMK A01 T00370037  RH  100%=      5-min Rain = 0
KAM3 081352Z 19006KT 04/04 A3036 RMK A01 T00380038  RH  100%=      5-min Rain = 0
KAM3 081353Z 19006KT 04/04 A3036 RMK A01 T00380038  RH  100%=      5-min Rain = 0
KAM3 081354Z 18005KT 04/04 A3036 RMK A01 T00390039  RH  100%=      5-min Rain = 0
KAM3 081355Z 20005KT 04/04 A3036 RMK A01 T00390039  RH  100%=      5-min Rain = 0
KAM3 081356Z 19005KT 04/04 A3036 RMK A01 T00400040  RH  100%=      5-min Rain = 0
KAM3 081357Z 19005KT 04/04 A3036 RMK A01 T00400040  RH  100%=      5-min Rain = 0
KAM3 081358Z 20006KT 04/04 A3036 RMK A01 T00400040  RH  100%=      5-min Rain = 0
KAM3 081359Z 20006KT 04/04 A3036 RMK A01 T00410041  RH  100%=      5-min Rain = 0
KAM3 081400Z 20006KT 04/04 A3036 RMK A01 T00410041  RH  100%=      5-min Rain = 0
KAM3 081401Z 20007KT 04/04 A3036 RMK A01 T00410041  RH  100%=      5-min Rain = 0
KAM3 081402Z 19007KT 04/04 A3036 RMK A01 T00410041  RH  100%=      5-min Rain = 0
KAM3 081403Z 20006KT 04/04 A3036 RMK A01 T00410041  RH  100%=      5-min Rain = 0
KAM3 081404Z 19006KT 04/04 A3036 RMK A01 T00420041  RH  100%=      5-min Rain = 0
KAM3 081405Z 18007KT 04/04 A3036 RMK A01 T00410041  RH  100%=      5-min Rain = 0
KAM3 081406Z 18006KT 04/04 A3036 RMK A01 T00410041  RH  100%=      5-min Rain = 0
KAM3 081407Z 19007KT 04/04 A3036 RMK A01 T00420041  RH  100%=      5-min Rain = 0
KAM3 081408Z 18006KT 04/04 A3036 RMK A01 T00420041  RH  099%=      5-min Rain = 0
KAM3 081409Z 18007KT 04/04 A3036 RMK A01 T00420041  RH  099%=      5-min Rain = 0
KAM3 081410Z 19007KT 04/04 A3036 RMK A01 T00420041  RH  100%=      5-min Rain = 0
KAM3 081411Z 20006KT 04/04 A3036 RMK A01 T00420041  RH  099%=      5-min Rain = 0
KAM3 081412Z 20005KT 04/04 A3036 RMK A01 T00420041  RH  099%=      5-min Rain = 0
KAM3 081413Z 20007KT 04/04 A3036 RMK A01 T00420041  RH  099%=      5-min Rain = 0
KAM3 081414Z 20006KT 04/04 A3036 RMK A01 T00420041  RH  099%=      5-min Rain = 0
KAM3 081415Z 19006KT 04/04 A3036 RMK A01 T00420041  RH  099%=      5-min Rain = 0
KAM3 081416Z 19005KT 04/04 A3036 RMK A01 T00430042  RH  099%=      5-min Rain = 0
KAM3 081417Z 19005KT 04/04 A3036 RMK A01 T00430042  RH  099%=      5-min Rain = 0
KAM3 081418Z 19006KT 04/04 A3036 RMK A01 T00430042  RH  099%=      5-min Rain = 0
KAM3 081419Z 18005KT 04/04 A3036 RMK A01 T00440041  RH  098%=      5-min Rain = 0
KAM3 081420Z 18006KT 04/04 A3036 RMK A01 T00440042  RH  098%=      5-min Rain = 0
KAM3 081421Z 18006KT 04/04 A3036 RMK A01 T00440041  RH  098%=      5-min Rain = 0
KAM3 081422Z 18006KT 04/04 A3036 RMK A01 T00440040  RH  098%=      5-min Rain = 0
KAM3 081423Z 18007KT 04/04 A3036 RMK A01 T00440041  RH  098%=      5-min Rain = 0
KAM3 081424Z 19006KT 04/04 A3036 RMK A01 T00440041  RH  098%=      5-min Rain = 0
KAM3 081425Z 19005KT 05/04 A3036 RMK A01 T00450042  RH  098%=      5-min Rain = 0
KAM3 081426Z 19007KT 05/04 A3036 RMK A01 T00450043  RH  099%=      5-min Rain = 0
KAM3 081427Z 19006KT 05/04 A3036 RMK A01 T00450042  RH  098%=      5-min Rain = 0
KAM3 081428Z 19006KT 05/04 A3036 RMK A01 T00450042  RH  098%=      5-min Rain = 0
KAM3 081429Z 19006KT 05/04 A3036 RMK A01 T00460043  RH  098%=      5-min Rain = 0
KAM3 081430Z 19006KT 05/04 A3036 RMK A01 T00460043  RH  098%=      5-min Rain = 0
KAM3 081431Z 19007KT 05/04 A3036 RMK A01 T00470043  RH  097%=      5-min Rain = 0
KAM3 081432Z 19006KT 05/04 A3036 RMK A01 T00470043  RH  097%=      5-min Rain = 0
KAM3 081433Z 19006KT 05/04 A3036 RMK A01 T00480043  RH  097%=      5-min Rain = 0
KAM3 081434Z 19006KT 05/04 A3036 RMK A01 T00480043  RH  096%=      5-min Rain = 0
KAM3 081435Z 19005KT 05/04 A3036 RMK A01 T00480042  RH  096%=      5-min Rain = 0
KAM3 081436Z 19005KT 05/04 A3036 RMK A01 T00480043  RH  096%=      5-min Rain = 0
KAM3 081437Z 19005KT 05/04 A3036 RMK A01 T00490044  RH  097%=      5-min Rain = 0
KAM3 081438Z 19004KT 05/05 A3037 RMK A01 T00500045  RH  097%=      5-min Rain = 0
KAM3 081439Z 20006KT 05/05 A3037 RMK A01 T00500045  RH  096%=      5-min Rain = 0
KAM3 081440Z 19007KT 05/04 A3037 RMK A01 T00510044  RH  095%=      5-min Rain = 0
KAM3 081441Z 20006KT 05/04 A3037 RMK A01 T00510044  RH  095%=      5-min Rain = 0
KAM3 081442Z 20005KT 05/05 A3037 RMK A01 T00520045  RH  095%=      5-min Rain = 0
KAM3 081443Z 21007KT 05/05 A3037 RMK A01 T00530045  RH  095%=      5-min Rain = 0
KAM3 081444Z 21011KT 05/05 A3037 RMK A01 T00540045  RH  095%=      5-min Rain = 0
KAM3 081445Z 21008KT 06/05 A3037 RMK A01 T00550046  RH  094%=      5-min Rain = 0
KAM3 081446Z 21011KT 06/05 A3037 RMK A01 T00560046  RH  094%=      5-min Rain = 0
KAM3 081447Z 21011KT 06/05 A3037 RMK A01 T00570045  RH  092%=      5-min Rain = 0
KAM3 081448Z 20010KT 06/04 A3037 RMK A01 T00560044  RH  092%=      5-min Rain = 0
KAM3 081449Z 20010KT 06/05 A3037 RMK A01 T00570045  RH  092%=      5-min Rain = 0
KAM3 081450Z 21010KT 06/05 A3037 RMK A01 T00570045  RH  092%=      5-min Rain = 0
KAM3 081451Z 22012KT 06/05 A3037 RMK A01 T00580045  RH  091%=      5-min Rain = 0
KAM3 081452Z 22011KT 06/04 A3037 RMK A01 T00570044  RH  091%=      5-min Rain = 0
KAM3 081453Z 21009KT 06/04 A3037 RMK A01 T00570044  RH  091%=      5-min Rain = 0
KAM3 081454Z 20012KT 06/04 A3037 RMK A01 T00570044  RH  091%=      5-min Rain = 0
KAM3 081455Z 21010KT 06/04 A3037 RMK A01 T00570044  RH  091%=      5-min Rain = 0
KAM3 081456Z 21012KT 06/04 A3037 RMK A01 T00570044  RH  091%=      5-min Rain = 0
KAM3 081457Z 20010KT 06/04 A3037 RMK A01 T00570044  RH  091%=      5-min Rain = 0
KAM3 081458Z 21012KT 06/04 A3037 RMK A01 T00570044  RH  091%=      5-min Rain = 0
KAM3 081459Z 22011KT 06/04 A3037 RMK A01 T00570044  RH  091%=      5-min Rain = 0
KAM3 081500Z 22012KT 06/04 A3037 RMK A01 T00570044  RH  091%=      5-min Rain = 0
KAM3 081501Z 22013KT 06/04 A3037 RMK A01 T00560043  RH  091%=      5-min Rain = 0
KAM3 081502Z 22012KT 06/04 A3037 RMK A01 T00560042  RH  091%=      5-min Rain = 0
KAM3 081503Z 22012KT 06/04 A3037 RMK A01 T00550042  RH  091%=      5-min Rain = 0
KAM3 081504Z 22012KT 06/04 A3037 RMK A01 T00550043  RH  092%=      5-min Rain = 0
KAM3 081505Z 21011KT 06/04 A3037 RMK A01 T00550043  RH  092%=      5-min Rain = 0
KAM3 081506Z 21013KT 06/04 A3037 RMK A01 T00550043  RH  092%=      5-min Rain = 0
KAM3 081507Z 21012KT 06/04 A3037 RMK A01 T00550043  RH  092%=      5-min Rain = 0
KAM3 081508Z 20010KT 06/04 A3037 RMK A01 T00550044  RH  092%=      5-min Rain = 0
KAM3 081509Z 21014KT 06/04 A3037 RMK A01 T00550043  RH  092%=      5-min Rain = 0
KAM3 081510Z 21014KT 06/04 A3037 RMK A01 T00560043  RH  091%=      5-min Rain = 0
KAM3 081511Z 20013KT 06/04 A3037 RMK A01 T00550042  RH  091%=      5-min Rain = 0
KAM3 081512Z 20012KT 06/04 A3037 RMK A01 T00550042  RH  092%=      5-min Rain = 0
KAM3 081513Z 20011KT 06/04 A3037 RMK A01 T00550042  RH  092%=      5-min Rain = 0
KAM3 081514Z 20013KT 06/04 A3037 RMK A01 T00550041  RH  091%=      5-min Rain = 0
KAM3 081515Z 21012KT 06/04 A3037 RMK A01 T00550042  RH  091%=      5-min Rain = 0
KAM3 081516Z 21015KT 06/04 A3037 RMK A01 T00550041  RH  090%=      5-min Rain = 0
KAM3 081517Z 21014KT 05/04 A3037 RMK A01 T00540040  RH  091%=      5-min Rain = 0
KAM3 081518Z 21015KT 05/04 A3037 RMK A01 T00540040  RH  091%=      5-min Rain = 0
KAM3 081519Z 21014KT 05/04 A3037 RMK A01 T00540040  RH  091%=      5-min Rain = 0
KAM3 081520Z 21011KT 05/04 A3037 RMK A01 T00540041  RH  091%=      5-min Rain = 0
KAM3 081521Z 21014KT 05/04 A3037 RMK A01 T00540041  RH  092%=      5-min Rain = 0
KAM3 081522Z 21014KT 05/04 A3037 RMK A01 T00540040  RH  091%=      5-min Rain = 0
KAM3 081523Z 21013KT 05/04 A3037 RMK A01 T00540041  RH  091%=      5-min Rain = 0
KAM3 081524Z 21011KT 05/04 A3037 RMK A01 T00540041  RH  091%=      5-min Rain = 0
KAM3 081525Z 20014KT 05/04 A3037 RMK A01 T00540041  RH  091%=      5-min Rain = 0
KAM3 081526Z 20015KT 05/04 A3037 RMK A01 T00540040  RH  090%=      5-min Rain = 0
KAM3 081527Z 21012KT 05/04 A3037 RMK A01 T00540040  RH  091%=      5-min Rain = 0
KAM3 081528Z 21012KT 05/04 A3037 RMK A01 T00540041  RH  091%=      5-min Rain = 0
KAM3 081529Z 21011KT 05/04 A3037 RMK A01 T00540041  RH  092%=      5-min Rain = 0
KAM3 081530Z 20013KT 05/04 A3037 RMK A01 T00540041  RH  091%=      5-min Rain = 0
KAM3 081531Z 21012KT 06/04 A3037 RMK A01 T00550041  RH  091%=      5-min Rain = 0
KAM3 081532Z 21012KT 06/04 A3037 RMK A01 T00550040  RH  091%=      5-min Rain = 0
KAM3 081533Z 22012KT 06/04 A3037 RMK A01 T00550040  RH  090%=      5-min Rain = 0
KAM3 081534Z 22013KT 06/04 A3037 RMK A01 T00550041  RH  091%=      5-min Rain = 0
KAM3 081535Z 22013KT 05/04 A3037 RMK A01 T00540040  RH  091%=      5-min Rain = 0
KAM3 081536Z 22010KT 05/04 A3037 RMK A01 T00540041  RH  091%=      5-min Rain = 0
KAM3 081537Z 21012KT 05/04 A3037 RMK A01 T00540042  RH  092%=      5-min Rain = 0
KAM3 081538Z 21011KT 05/04 A3037 RMK A01 T00540041  RH  092%=      5-min Rain = 0
KAM3 081539Z 22012KT 05/04 A3037 RMK A01 T00540041  RH  092%=      5-min Rain = 0
KAM3 081540Z 22012KT 05/04 A3037 RMK A01 T00540042  RH  092%=      5-min Rain = 0
KAM3 081541Z 22010KT 05/04 A3037 RMK A01 T00540042  RH  092%=      5-min Rain = 0
KAM3 081542Z 21010KT 05/04 A3037 RMK A01 T00540042  RH  092%=      5-min Rain = 0
KAM3 081543Z 21009KT 05/04 A3037 RMK A01 T00540042  RH  092%=      5-min Rain = 0
KAM3 081544Z 21012KT 06/04 A3037 RMK A01 T00550042  RH  092%=      5-min Rain = 0
KAM3 081545Z 21012KT 06/04 A3037 RMK A01 T00550041  RH  091%=      5-min Rain = 0
KAM3 081546Z 22012KT 06/04 A3037 RMK A01 T00550041  RH  091%=      5-min Rain = 0
KAM3 081547Z 21011KT 05/04 A3038 RMK A01 T00540041  RH  091%=      5-min Rain = 0
KAM3 081548Z 22010KT 05/04 A3037 RMK A01 T00540041  RH  092%=      5-min Rain = 0
KAM3 081549Z 21010KT 05/04 A3037 RMK A01 T00540042  RH  092%=      5-min Rain = 0
KAM3 081550Z 19010KT 05/04 A3037 RMK A01 T00540042  RH  091%=      5-min Rain = 0
KAM3 081551Z 19010KT 06/04 A3037 RMK A01 T00550041  RH  091%=      5-min Rain = 0
KAM3 081552Z 20011KT 06/04 A3037 RMK A01 T00550042  RH  091%=      5-min Rain = 0
KAM3 081553Z 19012KT 06/04 A3037 RMK A01 T00550042  RH  091%=      5-min Rain = 0
KAM3 081554Z 19013KT 05/04 A3037 RMK A01 T00540041  RH  091%=      5-min Rain = 0
KAM3 081555Z 20011KT 05/04 A3037 RMK A01 T00540041  RH  092%=      5-min Rain = 0
KAM3 081556Z 20013KT 05/04 A3037 RMK A01 T00540041  RH  091%=      5-min Rain = 0
KAM3 081557Z 20012KT 05/04 A3037 RMK A01 T00540041  RH  091%=      5-min Rain = 0
KAM3 081558Z 21011KT 05/04 A3037 RMK A01 T00540042  RH  092%=      5-min Rain = 0
KAM3 081559Z 22013KT 06/04 A3037 RMK A01 T00550042  RH  092%=      5-min Rain = 0
KAM3 081600Z 21012KT 06/04 A3037 RMK A01 T00550041  RH  091%=      5-min Rain = 0
KAM3 081601Z 21012KT 06/04 A3037 RMK A01 T00550041  RH  091%=      5-min Rain = 0
KAM3 081602Z 20013KT 06/04 A3037 RMK A01 T00550041  RH  091%=      5-min Rain = 0
KAM3 081603Z 20013KT 06/04 A3037 RMK A01 T00550041  RH  090%=      5-min Rain = 0
KAM3 081604Z 20010KT 05/04 A3037 RMK A01 T00540041  RH  091%=      5-min Rain = 0
KAM3 081605Z 20013KT 05/04 A3037 RMK A01 T00540040  RH  091%=      5-min Rain = 0
KAM3 081606Z 20011KT 06/04 A3037 RMK A01 T00550041  RH  091%=      5-min Rain = 0
KAM3 081607Z 20010KT 05/04 A3037 RMK A01 T00540042  RH  092%=      5-min Rain = 0
KAM3 081608Z 19012KT 06/04 A3037 RMK A01 T00560043  RH  091%=      5-min Rain = 0
KAM3 081609Z 20012KT 06/04 A3037 RMK A01 T00570040  RH  089%=      5-min Rain = 0
KAM3 081610Z 20013KT 06/04 A3037 RMK A01 T00570040  RH  089%=      5-min Rain = 0
KAM3 081611Z 19013KT 06/04 A3037 RMK A01 T00570040  RH  089%=      5-min Rain = 0
KAM3 081612Z 19014KT 06/04 A3037 RMK A01 T00560039  RH  089%=      5-min Rain = 0
KAM3 081613Z 20012KT 06/04 A3037 RMK A01 T00550040  RH  090%=      5-min Rain = 0
KAM3 081614Z 20012KT 06/04 A3037 RMK A01 T00550040  RH  091%=      5-min Rain = 0
KAM3 081615Z 20011KT 06/04 A3037 RMK A01 T00550041  RH  091%=      5-min Rain = 0
KAM3 081616Z 20013KT 06/04 A3037 RMK A01 T00550040  RH  090%=      5-min Rain = 0
KAM3 081617Z 20013KT 06/04 A3037 RMK A01 T00550040  RH  090%=      5-min Rain = 0
KAM3 081618Z 20014KT 06/04 A3037 RMK A01 T00550041  RH  091%=      5-min Rain = 0
KAM3 081619Z 20014KT 06/04 A3037 RMK A01 T00550041  RH  091%=      5-min Rain = 0
KAM3 081620Z 20013KT 06/04 A3037 RMK A01 T00550041  RH  091%=      5-min Rain = 0
KAM3 081621Z 20012KT 06/04 A3037 RMK A01 T00550041  RH  091%=      5-min Rain = 0
KAM3 081622Z 20013KT 06/04 A3037 RMK A01 T00560042  RH  090%=      5-min Rain = 0
KAM3 081623Z 20012KT 06/04 A3037 RMK A01 T00560040  RH  089%=      5-min Rain = 0
KAM3 081624Z 20011KT 06/04 A3037 RMK A01 T00560040  RH  089%=      5-min Rain = 0
KAM3 081625Z 20012KT 06/04 A3037 RMK A01 T00560039  RH  089%=      5-min Rain = 0
KAM3 081626Z 20009KT 06/04 A3037 RMK A01 T00550041  RH  091%=      5-min Rain = 0
KAM3 081627Z 20011KT 06/04 A3037 RMK A01 T00560041  RH  090%=      5-min Rain = 0
KAM3 081628Z 20009KT 06/04 A3037 RMK A01 T00560041  RH  090%=      5-min Rain = 0
KAM3 081629Z 20009KT 06/04 A3036 RMK A01 T00570042  RH  090%=      5-min Rain = 0
KAM3 081630Z 20007KT 06/04 A3036 RMK A01 T00580043  RH  090%=      5-min Rain = 0
KAM3 081631Z 19010KT 06/04 A3036 RMK A01 T00590042  RH  089%=      5-min Rain = 0
KAM3 081632Z 20011KT 06/04 A3036 RMK A01 T00590040  RH  088%=      5-min Rain = 0
KAM3 081633Z 20011KT 06/04 A3036 RMK A01 T00580041  RH  089%=      5-min Rain = 0
KAM3 081634Z 20010KT 06/04 A3036 RMK A01 T00570042  RH  090%=      5-min Rain = 0
KAM3 081635Z 22009KT 06/04 A3036 RMK A01 T00580042  RH  089%=      5-min Rain = 0
KAM3 081636Z 23010KT 06/04 A3036 RMK A01 T00580042  RH  089%=      5-min Rain = 0
KAM3 081637Z 23010KT 06/04 A3036 RMK A01 T00590042  RH  089%=      5-min Rain = 0
KAM3 081638Z 23010KT 06/04 A3036 RMK A01 T00580042  RH  090%=      5-min Rain = 0
KAM3 081639Z 22008KT 06/04 A3036 RMK A01 T00570043  RH  090%=      5-min Rain = 0
KAM3 081640Z 21009KT 06/04 A3036 RMK A01 T00580043  RH  090%=      5-min Rain = 0
KAM3 081641Z 19010KT 06/04 A3036 RMK A01 T00590043  RH  090%=      5-min Rain = 0
KAM3 081642Z 19010KT 06/04 A3036 RMK A01 T00590043  RH  089%=      5-min Rain = 0
KAM3 081643Z 19010KT 06/04 A3036 RMK A01 T00590043  RH  089%=      5-min Rain = 0
KAM3 081644Z 21010KT 06/04 A3036 RMK A01 T00580044  RH  090%=      5-min Rain = 0
KAM3 081645Z 20011KT 06/05 A3036 RMK A01 T00590045  RH  091%=      5-min Rain = 0
KAM3 081646Z 21010KT 06/04 A3036 RMK A01 T00600044  RH  089%=      5-min Rain = 0
KAM3 081647Z 22011KT 06/04 A3036 RMK A01 T00590044  RH  090%=      5-min Rain = 0
KAM3 081648Z 24011KT 06/04 A3036 RMK A01 T00600044  RH  090%=      5-min Rain = 0
KAM3 081649Z 23009KT 06/04 A3036 RMK A01 T00600044  RH  089%=      5-min Rain = 0
KAM3 081650Z 23010KT 06/04 A3036 RMK A01 T00610044  RH  089%=      5-min Rain = 0
KAM3 081651Z 23012KT 06/04 A3036 RMK A01 T00620044  RH  088%=      5-min Rain = 0
KAM3 081652Z 22011KT 06/04 A3036 RMK A01 T00610043  RH  088%=      5-min Rain = 0
KAM3 081653Z 23011KT 06/04 A3036 RMK A01 T00600043  RH  089%=      5-min Rain = 0
KAM3 081654Z 22011KT 06/04 A3036 RMK A01 T00600044  RH  089%=      5-min Rain = 0
KAM3 081655Z 22011KT 06/04 A3036 RMK A01 T00600044  RH  089%=      5-min Rain = 0
KAM3 081656Z 22008KT 06/05 A3036 RMK A01 T00600045  RH  090%=      5-min Rain = 0
KAM3 081657Z 23009KT 06/05 A3036 RMK A01 T00620045  RH  089%=      5-min Rain = 0
KAM3 081658Z 23009KT 06/05 A3036 RMK A01 T00620045  RH  089%=      5-min Rain = 0
KAM3 081659Z 21011KT 06/05 A3036 RMK A01 T00630045  RH  088%=      5-min Rain = 0
KAM3 081700Z 21012KT 06/04 A3036 RMK A01 T00640043  RH  087%=      5-min Rain = 0
KAM3 081701Z 22012KT 06/04 A3036 RMK A01 T00630043  RH  087%=      5-min Rain = 0
KAM3 081702Z 22011KT 06/04 A3036 RMK A01 T00620044  RH  088%=      5-min Rain = 0
KAM3 081703Z 22011KT 06/04 A3036 RMK A01 T00630044  RH  088%=      5-min Rain = 0
KAM3 081704Z 21007KT 06/04 A3036 RMK A01 T00620043  RH  087%=      5-min Rain = 0
KAM3 081705Z 21007KT 06/05 A3036 RMK A01 T00610045  RH  089%=      5-min Rain = 0
KAM3 081706Z 21009KT 06/05 A3036 RMK A01 T00630045  RH  088%=      5-min Rain = 0
KAM3 081707Z 22010KT 06/04 A3036 RMK A01 T00630044  RH  088%=      5-min Rain = 0
KAM3 081708Z 23011KT 06/05 A3036 RMK A01 T00640045  RH  087%=      5-min Rain = 0
KAM3 081709Z 23012KT 07/04 A3036 RMK A01 T00650044  RH  087%=      5-min Rain = 0
KAM3 081710Z 23012KT 07/04 A3036 RMK A01 T00650043  RH  085%=      5-min Rain = 0
KAM3 081711Z 23009KT 06/04 A3036 RMK A01 T00640042  RH  086%=      5-min Rain = 0
KAM3 081712Z 24008KT 06/04 A3036 RMK A01 T00630044  RH  088%=      5-min Rain = 0
KAM3 081713Z 23008KT 06/04 A3036 RMK A01 T00630044  RH  088%=      5-min Rain = 0
KAM3 081714Z 23010KT 06/05 A3036 RMK A01 T00640045  RH  087%=      5-min Rain = 0
KAM3 081715Z 23008KT 07/04 A3036 RMK A01 T00650044  RH  087%=      5-min Rain = 0
KAM3 081716Z 23009KT 07/04 A3036 RMK A01 T00650044  RH  087%=      5-min Rain = 0
KAM3 081717Z 23008KT 06/05 A3035 RMK A01 T00640045  RH  087%=      5-min Rain = 0
KAM3 081718Z 22009KT 07/05 A3035 RMK A01 T00660045  RH  087%=      5-min Rain = 0
KAM3 081719Z 22008KT 07/05 A3035 RMK A01 T00660046  RH  087%=      5-min Rain = 0
KAM3 081720Z 23008KT 07/05 A3035 RMK A01 T00690046  RH  086%=      5-min Rain = 0
KAM3 081721Z 22009KT 07/05 A3035 RMK A01 T00690045  RH  084%=      5-min Rain = 0
KAM3 081722Z 23009KT 07/05 A3035 RMK A01 T00690045  RH  085%=      5-min Rain = 0
KAM3 081723Z 21011KT 07/05 A3035 RMK A01 T00700045  RH  084%=      5-min Rain = 0
KAM3 081724Z 22011KT 07/04 A3035 RMK A01 T00720044  RH  083%=      5-min Rain = 0
KAM3 081725Z 22009KT 07/04 A3035 RMK A01 T00710042  RH  082%=      5-min Rain = 0
KAM3 081726Z 23008KT 07/04 A3035 RMK A01 T00690041  RH  083%=      5-min Rain = 0
KAM3 081727Z 21010KT 07/04 A3035 RMK A01 T00680043  RH  084%=      5-min Rain = 0
KAM3 081728Z 20010KT 07/04 A3035 RMK A01 T00680044  RH  085%=      5-min Rain = 0
KAM3 081729Z 22010KT 07/05 A3034 RMK A01 T00700045  RH  084%=      5-min Rain = 0
KAM3 081730Z 22009KT 07/04 A3034 RMK A01 T00700044  RH  083%=      5-min Rain = 0
KAM3 081731Z 21010KT 07/05 A3034 RMK A01 T00700045  RH  084%=      5-min Rain = 0
KAM3 081732Z 21012KT 07/04 A3034 RMK A01 T00720044  RH  083%=      5-min Rain = 0
KAM3 081733Z 21012KT 07/04 A3034 RMK A01 T00720043  RH  082%=      5-min Rain = 0
KAM3 081734Z 22010KT 07/04 A3034 RMK A01 T00720044  RH  083%=      5-min Rain = 0
KAM3 081735Z 22009KT 07/05 A3034 RMK A01 T00720045  RH  083%=      5-min Rain = 0
KAM3 081736Z 23009KT 07/05 A3034 RMK A01 T00740045  RH  082%=      5-min Rain = 0
KAM3 081737Z 23009KT 07/04 A3034 RMK A01 T00730044  RH  082%=      5-min Rain = 0
KAM3 081738Z 22011KT 07/05 A3034 RMK A01 T00730045  RH  082%=      5-min Rain = 0
KAM3 081739Z 23008KT 07/05 A3034 RMK A01 T00740045  RH  082%=      5-min Rain = 0
KAM3 081740Z 22009KT 08/05 A3035 RMK A01 T00760047  RH  081%=      5-min Rain = 0
KAM3 081741Z 22007KT 08/04 A3035 RMK A01 T00760044  RH  080%=      5-min Rain = 0
KAM3 081742Z 21008KT 08/04 A3035 RMK A01 T00750044  RH  081%=      5-min Rain = 0
KAM3 081743Z 21008KT 07/05 A3035 RMK A01 T00740045  RH  081%=      5-min Rain = 0
KAM3 081744Z 24007KT 07/05 A3035 RMK A01 T00740045  RH  082%=      5-min Rain = 0
KAM3 081745Z 22009KT 08/05 A3035 RMK A01 T00750047  RH  082%=      5-min Rain = 0
KAM3 081746Z 22010KT 08/05 A3035 RMK A01 T00790047  RH  080%=      5-min Rain = 0
KAM3 081747Z 24009KT 08/05 A3035 RMK A01 T00790046  RH  080%=      5-min Rain = 0
KAM3 081748Z 22009KT 08/05 A3035 RMK A01 T00810045  RH  078%=      5-min Rain = 0
KAM3 081749Z 22006KT 08/04 A3034 RMK A01 T00800044  RH  078%=      5-min Rain = 0
KAM3 081750Z 22010G15KT 08/05 A3034 RMK A01 T00810048  RH  080%=      5-min Rain = 0
KAM3 081751Z 22013KT 08/05 A3034 RMK A01 T00840047  RH  077%=      5-min Rain = 0
KAM3 081752Z 22012KT 09/05 A3034 RMK A01 T00850047  RH  077%=      5-min Rain = 0
KAM3 081753Z 21012KT 09/05 A3034 RMK A01 T00850045  RH  076%=      5-min Rain = 0
KAM3 081754Z 21011KT 08/04 A3034 RMK A01 T00820042  RH  076%=      5-min Rain = 0
KAM3 081755Z 21009KT 08/04 A3034 RMK A01 T00800042  RH  077%=      5-min Rain = 0
KAM3 081756Z 22008KT 08/04 A3034 RMK A01 T00800043  RH  078%=      5-min Rain = 0
KAM3 081757Z 24012KT 08/04 A3033 RMK A01 T00810044  RH  078%=      5-min Rain = 0
KAM3 081758Z 23010KT 08/04 A3033 RMK A01 T00820044  RH  077%=      5-min Rain = 0
KAM3 081759Z 23008KT 08/04 A3033 RMK A01 T00820044  RH  077%=      5-min Rain = 0
KAM3 081800Z 23011KT 08/04 A3033 RMK A01 T00820043  RH  077%=      5-min Rain = 0
KAM3 081801Z 22008KT 08/04 A3033 RMK A01 T00800043  RH  077%=      5-min Rain = 0
KAM3 081802Z 21008KT 08/05 A3033 RMK A01 T00810046  RH  078%=      5-min Rain = 0
KAM3 081803Z 23009KT 08/05 A3033 RMK A01 T00840046  RH  077%=      5-min Rain = 0
KAM3 081804Z 21009KT 09/05 A3033 RMK A01 T00870047  RH  076%=      5-min Rain = 0
KAM3 081805Z 21013KT 09/05 A3033 RMK A01 T00900048  RH  075%=      5-min Rain = 0
KAM3 081806Z 23011KT 09/05 A3033 RMK A01 T00900045  RH  074%=      5-min Rain = 0
KAM3 081807Z 19010KT 09/05 A3033 RMK A01 T00900046  RH  074%=      5-min Rain = 0
KAM3 081808Z 21013KT 09/05 A3033 RMK A01 T00900045  RH  074%=      5-min Rain = 0
KAM3 081809Z 21014KT 09/05 A3033 RMK A01 T00900046  RH  074%=      5-min Rain = 0
KAM3 081810Z 22011KT 09/05 A3033 RMK A01 T00920046  RH  073%=      5-min Rain = 0
KAM3 081816Z 22009G14KT 09/05 A3032 RMK A01 T00880045  RH  074%=      5-min Rain = 0
KAM3 081817Z 21013KT 09/05 A3032 RMK A01 T00910048  RH  074%=      5-min Rain = 0
KAM3 081818Z 21013KT 10/05 A3032 RMK A01 T00950048  RH  072%=      5-min Rain = 0
KAM3 081819Z 21011KT 10/05 A3032 RMK A01 T00960046  RH  071%=      5-min Rain = 0
KAM3 081820Z 21010KT 10/05 A3032 RMK A01 T00960046  RH  071%=      5-min Rain = 0
KAM3 081821Z 21009KT 09/04 A3032 RMK A01 T00920043  RH  071%=      5-min Rain = 0
KAM3 081822Z 22007KT 09/04 A3032 RMK A01 T00890044  RH  073%=      5-min Rain = 0
KAM3 081823Z 23009G15KT 09/05 A3032 RMK A01 T00920048  RH  074%=      5-min Rain = 0
KAM3 081824Z 22011KT 10/05 A3032 RMK A01 T00960047  RH  072%=      5-min Rain = 0
KAM3 081825Z 22009KT 10/05 A3032 RMK A01 T00970047  RH  071%=      5-min Rain = 0
KAM3 081826Z 23010KT 10/05 A3032 RMK A01 T00990047  RH  070%=      5-min Rain = 0
KAM3 081827Z 23010KT 10/05 A3032 RMK A01 T01010048  RH  070%=      5-min Rain = 0
KAM3 081828Z 24010KT 10/05 A3032 RMK A01 T01030047  RH  068%=      5-min Rain = 0
KAM3 081829Z 23011KT 10/05 A3032 RMK A01 T01010045  RH  068%=      5-min Rain = 0
KAM3 081830Z 21009KT 10/04 A3032 RMK A01 T00990044  RH  069%=      5-min Rain = 0
KAM3 081831Z 23008KT 10/05 A3032 RMK A01 T00970047  RH  071%=      5-min Rain = 0
KAM3 081832Z 23010KT 10/05 A3032 RMK A01 T01010049  RH  070%=      5-min Rain = 0
KAM3 081833Z 23011KT 10/05 A3031 RMK A01 T01030047  RH  068%=      5-min Rain = 0
KAM3 081834Z 24011KT 10/05 A3031 RMK A01 T01030047  RH  068%=      5-min Rain = 0
KAM3 081835Z 22009KT 10/05 A3031 RMK A01 T01020046  RH  068%=      5-min Rain = 0
KAM3 081836Z 23006KT 10/05 A3031 RMK A01 T01010046  RH  069%=      5-min Rain = 0
KAM3 081837Z 21009KT 10/05 A3031 RMK A01 T01000045  RH  069%=      5-min Rain = 0
KAM3 081838Z 19009KT 10/05 A3031 RMK A01 T01000047  RH  070%=      5-min Rain = 0
KAM3 081839Z 23008KT 10/05 A3031 RMK A01 T01010049  RH  070%=      5-min Rain = 0
KAM3 081840Z 21009KT 10/05 A3031 RMK A01 T01040049  RH  069%=      5-min Rain = 0
KAM3 081841Z 21010KT 10/05 A3031 RMK A01 T01030048  RH  068%=      5-min Rain = 0
KAM3 081842Z 22011KT 10/05 A3031 RMK A01 T01030048  RH  069%=      5-min Rain = 0
KAM3 081843Z 22012KT 10/05 A3031 RMK A01 T01030047  RH  068%=      5-min Rain = 0
KAM3 081844Z 21008KT 10/05 A3031 RMK A01 T01000046  RH  069%=      5-min Rain = 0
KAM3 081845Z 23006KT 10/05 A3031 RMK A01 T00990048  RH  070%=      5-min Rain = 0
KAM3 081846Z 20005KT 10/05 A3031 RMK A01 T00990047  RH  070%=      5-min Rain = 0
KAM3 081847Z 21008KT 10/05 A3031 RMK A01 T01010049  RH  070%=      5-min Rain = 0
KAM3 081848Z 22010KT 11/05 A3031 RMK A01 T01050050  RH  068%=      5-min Rain = 0
KAM3 081849Z 23010KT 11/05 A303 RMK A01 T01060048  RH  067%=      5-min Rain = 0
KAM3 081850Z 23007KT 11/05 A303 RMK A01 T01060048  RH  067%=      5-min Rain = 0
KAM3 081851Z 21010KT 10/05 A303 RMK A01 T01040048  RH  068%=      5-min Rain = 0
KAM3 081852Z 21009KT 10/05 A303 RMK A01 T01040047  RH  068%=      5-min Rain = 0
KAM3 081853Z 22009KT 10/05 A303 RMK A01 T01030047  RH  069%=      5-min Rain = 0
KAM3 081854Z 23011KT 10/05 A303 RMK A01 T01030048  RH  069%=      5-min Rain = 0
KAM3 081855Z 22009KT 11/05 A303 RMK A01 T01050048  RH  068%=      5-min Rain = 0
KAM3 081856Z 21008KT 10/05 A303 RMK A01 T01040047  RH  068%=      5-min Rain = 0
KAM3 081857Z 20009KT 10/05 A303 RMK A01 T01030047  RH  068%=      5-min Rain = 0
KAM3 081858Z 23009KT 10/05 A303 RMK A01 T01040048  RH  068%=      5-min Rain = 0
KAM3 081859Z 22010KT 10/05 A3029 RMK A01 T01040047  RH  068%=      5-min Rain = 0
KAM3 081900Z 22008KT 11/05 A3029 RMK A01 T01060049  RH  068%=      5-min Rain = 0
KAM3 081901Z 21009KT 11/05 A3029 RMK A01 T01100051  RH  067%=      5-min Rain = 0
KAM3 081902Z 20007KT 11/05 A3029 RMK A01 T01130050  RH  065%=      5-min Rain = 0
KAM3 081903Z 20006KT 11/05 A3029 RMK A01 T01120049  RH  065%=      5-min Rain = 0
KAM3 081904Z 22008KT 11/05 A3029 RMK A01 T01090049  RH  066%=      5-min Rain = 0
KAM3 081905Z 20011KT 11/05 A3029 RMK A01 T01090050  RH  067%=      5-min Rain = 0
KAM3 081906Z 20009KT 11/05 A3029 RMK A01 T01090048  RH  066%=      5-min Rain = 0
KAM3 081907Z 22009KT 11/05 A3029 RMK A01 T01100049  RH  066%=      5-min Rain = 0
KAM3 081908Z 23007KT 11/05 A3029 RMK A01 T01110050  RH  066%=      5-min Rain = 0
KAM3 081909Z 23007G12KT 11/05 A3029 RMK A01 T01110050  RH  066%=      5-min Rain = 0
KAM3 081910Z 23010KT 11/05 A3029 RMK A01 T01130051  RH  066%=      5-min Rain = 0
KAM3 081911Z 23008KT 11/05 A3028 RMK A01 T01120050  RH  065%=      5-min Rain = 0
KAM3 081912Z 22009KT 11/05 A3028 RMK A01 T01100050  RH  066%=      5-min Rain = 0
KAM3 081913Z 21009KT 11/05 A3028 RMK A01 T01120053  RH  067%=      5-min Rain = 0
KAM3 081914Z 20011KT 12/05 A3028 RMK A01 T01170052  RH  064%=      5-min Rain = 0
KAM3 081915Z 21011KT 12/05 A3028 RMK A01 T01170050  RH  063%=      5-min Rain = 0
KAM3 081916Z 21012KT 11/05 A3028 RMK A01 T01140050  RH  065%=      5-min Rain = 0
KAM3 081917Z 21011KT 11/05 A3028 RMK A01 T01130050  RH  065%=      5-min Rain = 0
KAM3 081918Z 22010KT 11/05 A3028 RMK A01 T01110050  RH  066%=      5-min Rain = 0
KAM3 081919Z 23007KT 11/05 A3028 RMK A01 T01110052  RH  067%=      5-min Rain = 0
KAM3 081920Z 21009G15KT 11/05 A3028 RMK A01 T01130053  RH  066%=      5-min Rain = 0
KAM3 081921Z 22011KT 12/05 A3028 RMK A01 T01150051  RH  065%=      5-min Rain = 0
KAM3 081922Z 22011KT 12/05 A3028 RMK A01 T01150050  RH  064%=      5-min Rain = 0
KAM3 081923Z 22008KT 11/05 A3028 RMK A01 T01130049  RH  065%=      5-min Rain = 0
KAM3 081924Z 20008G13KT 11/05 A3028 RMK A01 T01130051  RH  065%=      5-min Rain = 0
KAM3 081925Z 20012KT 12/05 A3028 RMK A01 T01160051  RH  064%=      5-min Rain = 0
KAM3 081926Z 21010KT 12/05 A3028 RMK A01 T01150049  RH  064%=      5-min Rain = 0
KAM3 081927Z 19006KT 11/05 A3028 RMK A01 T01130050  RH  065%=      5-min Rain = 0
KAM3 081928Z 19009KT 11/05 A3027 RMK A01 T01140052  RH  065%=      5-min Rain = 0
KAM3 081929Z 20010KT 12/05 A3027 RMK A01 T01170051  RH  064%=      5-min Rain = 0
KAM3 081930Z 20013KT 12/05 A3027 RMK A01 T01180051  RH  064%=      5-min Rain = 0
KAM3 081931Z 22012KT 12/05 A3027 RMK A01 T01180051  RH  063%=      5-min Rain = 0
KAM3 081932Z 23010KT 12/05 A3027 RMK A01 T01180050  RH  063%=      5-min Rain = 0
KAM3 081933Z 23010KT 12/05 A3027 RMK A01 T01170051  RH  064%=      5-min Rain = 0
KAM3 081934Z 23010KT 12/05 A3027 RMK A01 T01160050  RH  064%=      5-min Rain = 0
KAM3 081935Z 21011KT 12/05 A3027 RMK A01 T01160051  RH  064%=      5-min Rain = 0
KAM3 081936Z 22013KT 12/05 A3027 RMK A01 T01180052  RH  064%=      5-min Rain = 0
KAM3 081937Z 23011KT 12/05 A3027 RMK A01 T01180050  RH  063%=      5-min Rain = 0
KAM3 081938Z 24009KT 12/05 A3027 RMK A01 T01170050  RH  064%=      5-min Rain = 0
KAM3 081939Z 22010KT 12/05 A3027 RMK A01 T01170052  RH  064%=      5-min Rain = 0
KAM3 081940Z 22011KT 12/05 A3027 RMK A01 T01220053  RH  063%=      5-min Rain = 0
KAM3 081941Z 23011KT 12/05 A3027 RMK A01 T01230051  RH  062%=      5-min Rain = 0
KAM3 081942Z 22009KT 12/05 A3027 RMK A01 T01220051  RH  062%=      5-min Rain = 0
KAM3 081943Z 21010KT 12/05 A3027 RMK A01 T01220052  RH  062%=      5-min Rain = 0
KAM3 081944Z 20008KT 12/05 A3027 RMK A01 T01210051  RH  062%=      5-min Rain = 0
KAM3 081945Z 19010KT 12/05 A3027 RMK A01 T01190052  RH  063%=      5-min Rain = 0
KAM3 081946Z 20009KT 12/05 A3027 RMK A01 T01210054  RH  063%=      5-min Rain = 0
KAM3 081947Z 21010KT 12/05 A3027 RMK A01 T01240054  RH  062%=      5-min Rain = 0
KAM3 081948Z 21010KT 13/05 A3027 RMK A01 T01250054  RH  062%=      5-min Rain = 0
KAM3 081949Z 22010KT 13/05 A3026 RMK A01 T01250053  RH  061%=      5-min Rain = 0
KAM3 081950Z 23009KT 12/05 A3026 RMK A01 T01240052  RH  062%=      5-min Rain = 0
KAM3 081951Z 22010KT 12/05 A3026 RMK A01 T01240053  RH  062%=      5-min Rain = 0
KAM3 081952Z 21010KT 13/06 A3026 RMK A01 T01260055  RH  062%=      5-min Rain = 0
KAM3 081953Z 23010KT 13/06 A3027 RMK A01 T01290055  RH  061%=      5-min Rain = 0
KAM3 081954Z 23009KT 13/05 A3027 RMK A01 T01300054  RH  060%=      5-min Rain = 0
KAM3 081955Z 23010KT 13/05 A3027 RMK A01 T01280053  RH  060%=      5-min Rain = 0
KAM3 081956Z 23009KT 13/05 A3027 RMK A01 T01260053  RH  061%=      5-min Rain = 0
KAM3 081957Z 23009KT 13/05 A3027 RMK A01 T01260054  RH  062%=      5-min Rain = 0
KAM3 081958Z 22007KT 13/06 A3027 RMK A01 T01290056  RH  061%=      5-min Rain = 0
KAM3 081959Z 23008KT 13/06 A3026 RMK A01 T01330056  RH  060%=      5-min Rain = 0
KAM3 082000Z 24006KT 13/05 A3026 RMK A01 T01320054  RH  059%=      5-min Rain = 0
KAM3 082001Z 22008KT 13/06 A3026 RMK A01 T01310055  RH  060%=      5-min Rain = 0
KAM3 082002Z 22013KT 13/06 A3026 RMK A01 T01330056  RH  060%=      5-min Rain = 0
KAM3 082003Z 22011KT 13/06 A3026 RMK A01 T01330055  RH  059%=      5-min Rain = 0
KAM3 082004Z 23009KT 13/06 A3026 RMK A01 T01320055  RH  060%=      5-min Rain = 0
KAM3 082005Z 23009KT 13/05 A3026 RMK A01 T01320054  RH  059%=      5-min Rain = 0
KAM3 082006Z 23010KT 13/05 A3026 RMK A01 T01310054  RH  060%=      5-min Rain = 0
KAM3 082007Z 24010KT 13/06 A3026 RMK A01 T01290055  RH  061%=      5-min Rain = 0
KAM3 082008Z 24013KT 13/06 A3026 RMK A01 T01300056  RH  061%=      5-min Rain = 0
KAM3 082009Z 22009KT 13/06 A3026 RMK A01 T01300056  RH  060%=      5-min Rain = 0
KAM3 082010Z 22010KT 13/06 A3026 RMK A01 T01310056  RH  061%=      5-min Rain = 0
KAM3 082011Z 23010KT 13/06 A3026 RMK A01 T01320056  RH  060%=      5-min Rain = 0
KAM3 082012Z 25008KT 13/06 A3026 RMK A01 T01310057  RH  061%=      5-min Rain = 0
KAM3 082013Z 24006KT 13/06 A3026 RMK A01 T01300057  RH  061%=      5-min Rain = 0
KAM3 082014Z 23008G13KT 13/06 A3026 RMK A01 T01320059  RH  061%=      5-min Rain = 0
KAM3 082015Z 24011KT 14/06 A3026 RMK A01 T01350057  RH  059%=      5-min Rain = 0
KAM3 082016Z 24009KT 13/06 A3026 RMK A01 T01340056  RH  059%=      5-min Rain = 0
KAM3 082017Z 21009KT 13/06 A3026 RMK A01 T01340058  RH  060%=      5-min Rain = 0
KAM3 082018Z 20009KT 14/06 A3026 RMK A01 T01360058  RH  059%=      5-min Rain = 0
KAM3 082019Z 20007KT 14/06 A3026 RMK A01 T01370058  RH  059%=      5-min Rain = 0
KAM3 082020Z 20008KT 14/06 A3025 RMK A01 T01360058  RH  059%=      5-min Rain = 0
KAM3 082021Z 21009KT 14/06 A3025 RMK A01 T01350058  RH  059%=      5-min Rain = 0
KAM3 082022Z 21012KT 14/06 A3025 RMK A01 T01350057  RH  059%=      5-min Rain = 0
KAM3 082023Z 21012KT 14/06 A3025 RMK A01 T01350058  RH  059%=      5-min Rain = 0
KAM3 082024Z 21011KT 14/06 A3025 RMK A01 T01350058  RH  060%=      5-min Rain = 0
KAM3 082025Z 22010KT 14/06 A3025 RMK A01 T01350058  RH  060%=      5-min Rain = 0
KAM3 082026Z 21008KT 13/06 A3025 RMK A01 T01340058  RH  060%=      5-min Rain = 0
KAM3 082027Z 21007KT 13/06 A3025 RMK A01 T01330059  RH  061%=      5-min Rain = 0
KAM3 082028Z 21007G12KT 13/06 A3025 RMK A01 T01340059  RH  060%=      5-min Rain = 0
KAM3 082029Z 20007KT 14/06 A3025 RMK A01 T01370062  RH  060%=      5-min Rain = 0
KAM3 082030Z 19010KT 14/06 A3025 RMK A01 T01420061  RH  058%=      5-min Rain = 0
KAM3 082031Z 21011KT 14/06 A3025 RMK A01 T01420060  RH  058%=      5-min Rain = 0
KAM3 082032Z 21010KT 14/06 A3025 RMK A01 T01410060  RH  058%=      5-min Rain = 0
KAM3 082033Z 22011KT 14/06 A3025 RMK A01 T01410060  RH  058%=      5-min Rain = 0
KAM3 082034Z 22010KT 14/06 A3025 RMK A01 T01400060  RH  059%=      5-min Rain = 0
KAM3 082035Z 23008KT 14/06 A3025 RMK A01 T01400060  RH  059%=      5-min Rain = 0
KAM3 082036Z 23005KT 14/06 A3025 RMK A01 T01390059  RH  059%=      5-min Rain = 0
KAM3 082037Z 22009KT 14/06 A3025 RMK A01 T01370059  RH  059%=      5-min Rain = 0
KAM3 082038Z 23009KT 14/06 A3025 RMK A01 T01390058  RH  058%=      5-min Rain = 0
KAM3 082039Z 21008KT 14/06 A3025 RMK A01 T01390058  RH  058%=      5-min Rain = 0
KAM3 082040Z 22009KT 14/06 A3025 RMK A01 T01400058  RH  058%=      5-min Rain = 0
KAM3 082041Z 23007KT 14/06 A3025 RMK A01 T01410057  RH  057%=      5-min Rain = 0
KAM3 082042Z 24007KT 14/06 A3025 RMK A01 T01410058  RH  057%=      5-min Rain = 0
KAM3 082043Z 21005KT 14/06 A3025 RMK A01 T01410058  RH  057%=      5-min Rain = 0
KAM3 082044Z 20006KT 14/06 A3025 RMK A01 T01400058  RH  058%=      5-min Rain = 0
KAM3 082045Z 21009KT 14/06 A3025 RMK A01 T01410060  RH  058%=      5-min Rain = 0
KAM3 082046Z 23009KT 14/06 A3025 RMK A01 T01430061  RH  058%=      5-min Rain = 0
KAM3 082047Z 23007KT 14/06 A3025 RMK A01 T01440060  RH  057%=      5-min Rain = 0
KAM3 082048Z 21008KT 14/06 A3025 RMK A01 T01440061  RH  057%=      5-min Rain = 0
KAM3 082049Z 21007KT 14/06 A3025 RMK A01 T01440060  RH  057%=      5-min Rain = 0
KAM3 082050Z 19008KT 14/06 A3024 RMK A01 T01440061  RH  058%=      5-min Rain = 0
KAM3 082051Z 20010KT 15/06 A3024 RMK A01 T01450061  RH  057%=      5-min Rain = 0
KAM3 082052Z 21010KT 15/06 A3024 RMK A01 T01460061  RH  057%=      5-min Rain = 0
KAM3 082053Z 21011KT 15/06 A3024 RMK A01 T01470061  RH  056%=      5-min Rain = 0
KAM3 082054Z 20011KT 15/06 A3024 RMK A01 T01470061  RH  056%=      5-min Rain = 0
KAM3 082055Z 21009KT 15/06 A3024 RMK A01 T01450061  RH  057%=      5-min Rain = 0
KAM3 082056Z 21008KT 14/06 A3024 RMK A01 T01440061  RH  057%=      5-min Rain = 0
KAM3 082057Z 20009KT 14/06 A3024 RMK A01 T01440061  RH  057%=      5-min Rain = 0
KAM3 082058Z 20008KT 15/06 A3024 RMK A01 T01450060  RH  057%=      5-min Rain = 0
KAM3 082059Z 21009KT 14/06 A3024 RMK A01 T01440061  RH  057%=      5-min Rain = 0
KAM3 082100Z 21010KT 15/06 A3024 RMK A01 T01460061  RH  057%=      5-min Rain = 0
KAM3 082101Z 22006KT 15/06 A3024 RMK A01 T01470062  RH  057%=      5-min Rain = 0
KAM3 082102Z 22008KT 15/06 A3024 RMK A01 T01480062  RH  056%=      5-min Rain = 0
KAM3 082103Z 22010KT 15/06 A3024 RMK A01 T01490063  RH  056%=      5-min Rain = 0
KAM3 082104Z 22011KT 15/06 A3024 RMK A01 T01510062  RH  055%=      5-min Rain = 0
KAM3 082105Z 22010KT 15/06 A3024 RMK A01 T01500062  RH  056%=      5-min Rain = 0
KAM3 082106Z 21008KT 15/06 A3024 RMK A01 T01490063  RH  056%=      5-min Rain = 0
KAM3 082107Z 21007KT 15/06 A3024 RMK A01 T01480062  RH  056%=      5-min Rain = 0
KAM3 082108Z 22007KT 15/06 A3024 RMK A01 T01460062  RH  057%=      5-min Rain = 0
KAM3 082109Z 20009G16KT 15/06 A3024 RMK A01 T01460063  RH  057%=      5-min Rain = 0
KAM3 082110Z 22012KT 15/06 A3023 RMK A01 T01480063  RH  057%=      5-min Rain = 0
KAM3 082111Z 22011KT 15/06 A3023 RMK A01 T01500062  RH  056%=      5-min Rain = 0
KAM3 082112Z 21011KT 15/06 A3023 RMK A01 T01490063  RH  056%=      5-min Rain = 0
KAM3 082113Z 20010KT 15/06 A3023 RMK A01 T01490063  RH  056%=      5-min Rain = 0
KAM3 082114Z 21010KT 15/06 A3023 RMK A01 T01490062  RH  056%=      5-min Rain = 0
KAM3 082115Z 21009KT 15/06 A3023 RMK A01 T01480062  RH  057%=      5-min Rain = 0
KAM3 082116Z 20009KT 15/06 A3023 RMK A01 T01480063  RH  057%=      5-min Rain = 0
KAM3 082117Z 19009KT 15/06 A3023 RMK A01 T01480063  RH  057%=      5-min Rain = 0
KAM3 082118Z 21009KT 15/06 A3023 RMK A01 T01490063  RH  056%=      5-min Rain = 0
KAM3 082119Z 23012KT 15/06 A3023 RMK A01 T01500063  RH  056%=      5-min Rain = 0
KAM3 082120Z 22010KT 15/06 A3023 RMK A01 T01500062  RH  056%=      5-min Rain = 0
KAM3 082121Z 21011KT 15/06 A3023 RMK A01 T01490061  RH  056%=      5-min Rain = 0
KAM3 082122Z 22009KT 15/06 A3023 RMK A01 T01500061  RH  055%=      5-min Rain = 0
KAM3 082123Z 22008KT 15/06 A3023 RMK A01 T01490062  RH  056%=      5-min Rain = 0
KAM3 082124Z 22010KT 15/06 A3023 RMK A01 T01500063  RH  056%=      5-min Rain = 0
KAM3 082125Z 22012KT 15/06 A3023 RMK A01 T01510062  RH  055%=      5-min Rain = 0
KAM3 082126Z 22008KT 15/06 A3023 RMK A01 T01510062  RH  055%=      5-min Rain = 0
KAM3 082127Z 20008KT 15/06 A3023 RMK A01 T01520064  RH  056%=      5-min Rain = 0
KAM3 082128Z 21008KT 15/06 A3023 RMK A01 T01520063  RH  056%=      5-min Rain = 0
KAM3 082129Z 22008KT 15/07 A3023 RMK A01 T01530066  RH  056%=      5-min Rain = 0
KAM3 082130Z 21007KT 16/07 A3023 RMK A01 T01560065  RH  055%=      5-min Rain = 0
KAM3 082131Z 21006KT 15/07 A3023 RMK A01 T01540065  RH  055%=      5-min Rain = 0
KAM3 082132Z 23008KT 16/06 A3023 RMK A01 T01550064  RH  055%=      5-min Rain = 0
KAM3 082133Z 23010KT 16/06 A3023 RMK A01 T01560062  RH  054%=      5-min Rain = 0
KAM3 082134Z 23009KT 16/06 A3023 RMK A01 T01560061  RH  053%=      5-min Rain = 0
KAM3 082135Z 23008KT 16/06 A3023 RMK A01 T01550061  RH  053%=      5-min Rain = 0
KAM3 082136Z 21009KT 16/06 A3023 RMK A01 T01550061  RH  054%=      5-min Rain = 0
KAM3 082137Z 23009KT 15/06 A3023 RMK A01 T01540062  RH  054%=      5-min Rain = 0
KAM3 082138Z 22009KT 16/06 A3023 RMK A01 T01550063  RH  054%=      5-min Rain = 0
KAM3 082139Z 20008KT 16/06 A3023 RMK A01 T01550064  RH  054%=      5-min Rain = 0
KAM3 082140Z 23008KT 16/06 A3023 RMK A01 T01550064  RH  055%=      5-min Rain = 0
KAM3 082141Z 23008KT 16/06 A3023 RMK A01 T01560064  RH  054%=      5-min Rain = 0
KAM3 082142Z 21007KT 16/06 A3023 RMK A01 T01570064  RH  054%=      5-min Rain = 0
KAM3 082143Z 22006KT 16/07 A3023 RMK A01 T01570065  RH  054%=      5-min Rain = 0
KAM3 082144Z 21010KT 16/06 A3023 RMK A01 T01580064  RH  054%=      5-min Rain = 0
KAM3 082145Z 23010KT 16/07 A3023 RMK A01 T01570065  RH  054%=      5-min Rain = 0
KAM3 082146Z 24010KT 16/07 A3023 RMK A01 T01570065  RH  054%=      5-min Rain = 0
KAM3 082147Z 23009KT 16/06 A3023 RMK A01 T01560064  RH  054%=      5-min Rain = 0
KAM3 082148Z 21009KT 16/06 A3023 RMK A01 T01560064  RH  054%=      5-min Rain = 0
KAM3 082149Z 22008KT 16/06 A3023 RMK A01 T01560064  RH  054%=      5-min Rain = 0
KAM3 082150Z 22008KT 16/06 A3023 RMK A01 T01560064  RH  054%=      5-min Rain = 0
KAM3 082151Z 20010KT 16/06 A3022 RMK A01 T01560063  RH  054%=      5-min Rain = 0
KAM3 082152Z 21010KT 16/06 A3022 RMK A01 T01570063  RH  054%=      5-min Rain = 0
KAM3 082153Z 21010KT 16/06 A3022 RMK A01 T01570064  RH  054%=      5-min Rain = 0
KAM3 082154Z 21010KT 16/06 A3022 RMK A01 T01570064  RH  054%=      5-min Rain = 0
KAM3 082155Z 21009KT 16/06 A3022 RMK A01 T01570064  RH  054%=      5-min Rain = 0
KAM3 082156Z 21009KT 16/06 A3022 RMK A01 T01560063  RH  054%=      5-min Rain = 0
KAM3 082157Z 20009KT 16/06 A3022 RMK A01 T01550063  RH  054%=      5-min Rain = 0
KAM3 082158Z 21009KT 16/06 A3022 RMK A01 T01550064  RH  054%=      5-min Rain = 0
KAM3 082159Z 21011KT 16/06 A3022 RMK A01 T01550064  RH  054%=      5-min Rain = 0
KAM3 082200Z 20009KT 16/06 A3022 RMK A01 T01550064  RH  055%=      5-min Rain = 0
KAM3 082201Z 20011KT 16/06 A3022 RMK A01 T01560064  RH  054%=      5-min Rain = 0
KAM3 082202Z 21010KT 16/06 A3022 RMK A01 T01570064  RH  054%=      5-min Rain = 0
KAM3 082203Z 21011KT 16/06 A3022 RMK A01 T01580064  RH  054%=      5-min Rain = 0
KAM3 082204Z 21010KT 16/06 A3022 RMK A01 T01580064  RH  054%=      5-min Rain = 0
KAM3 082205Z 22006KT 16/06 A3022 RMK A01 T01580064  RH  054%=      5-min Rain = 0
KAM3 082206Z 22009KT 16/06 A3022 RMK A01 T01580064  RH  054%=      5-min Rain = 0
KAM3 082207Z 22010KT 16/06 A3022 RMK A01 T01590064  RH  053%=      5-min Rain = 0
KAM3 082208Z 21009KT 16/06 A3022 RMK A01 T01590064  RH  053%=      5-min Rain = 0
KAM3 082209Z 21008KT 16/06 A3022 RMK A01 T01580064  RH  054%=      5-min Rain = 0
KAM3 082210Z 21007KT 16/07 A3022 RMK A01 T01590065  RH  054%=      5-min Rain = 0
KAM3 082211Z 21008KT 16/07 A3022 RMK A01 T01590065  RH  054%=      5-min Rain = 0
KAM3 082212Z 22007KT 16/06 A3022 RMK A01 T01590064  RH  053%=      5-min Rain = 0
KAM3 082213Z 23009KT 16/06 A3022 RMK A01 T01590063  RH  053%=      5-min Rain = 0
KAM3 082214Z 23009KT 16/06 A3022 RMK A01 T01590064  RH  053%=      5-min Rain = 0
KAM3 082215Z 23008KT 16/06 A3022 RMK A01 T01590064  RH  053%=      5-min Rain = 0
KAM3 082216Z 21006KT 16/06 A3022 RMK A01 T01590064  RH  053%=      5-min Rain = 0
KAM3 082217Z 21006KT 16/06 A3022 RMK A01 T01590063  RH  053%=      5-min Rain = 0
KAM3 082218Z 23006KT 16/06 A3022 RMK A01 T01600063  RH  053%=      5-min Rain = 0
KAM3 082219Z 21010KT 16/06 A3022 RMK A01 T01610064  RH  053%=      5-min Rain = 0
KAM3 082220Z 22009KT 16/07 A3022 RMK A01 T01620065  RH  053%=      5-min Rain = 0
KAM3 082221Z 21009KT 16/06 A3022 RMK A01 T01610064  RH  053%=      5-min Rain = 0
KAM3 082222Z 22008KT 16/06 A3022 RMK A01 T01610064  RH  053%=      5-min Rain = 0
KAM3 082223Z 23007KT 16/06 A3022 RMK A01 T01610064  RH  052%=      5-min Rain = 0
KAM3 082224Z 22006KT 16/06 A3022 RMK A01 T01600063  RH  052%=      5-min Rain = 0
KAM3 082225Z 21008KT 16/06 A3022 RMK A01 T01600064  RH  053%=      5-min Rain = 0
KAM3 082226Z 21008KT 16/06 A3022 RMK A01 T01600064  RH  053%=      5-min Rain = 0
KAM3 082227Z 21007KT 16/06 A3022 RMK A01 T01600064  RH  053%=      5-min Rain = 0
KAM3 082228Z 22007KT 16/06 A3022 RMK A01 T01590064  RH  053%=      5-min Rain = 0
KAM3 082229Z 22007KT 16/06 A3022 RMK A01 T01590064  RH  053%=      5-min Rain = 0
KAM3 082230Z 22008KT 16/06 A3022 RMK A01 T01600064  RH  053%=      5-min Rain = 0
KAM3 082231Z 23008KT 16/06 A3022 RMK A01 T01600064  RH  053%=      5-min Rain = 0
KAM3 082232Z 22006KT 16/06 A3022 RMK A01 T01590064  RH  053%=      5-min Rain = 0
KAM3 082233Z 22005KT 16/06 A3022 RMK A01 T01580064  RH  054%=      5-min Rain = 0
KAM3 082234Z 22005KT 16/07 A3022 RMK A01 T01590065  RH  053%=      5-min Rain = 0
KAM3 082235Z 21006KT 16/07 A3022 RMK A01 T01610065  RH  053%=      5-min Rain = 0
KAM3 082236Z 22008KT 16/07 A3022 RMK A01 T01620065  RH  052%=      5-min Rain = 0
KAM3 082237Z 22009KT 16/06 A3022 RMK A01 T01620064  RH  052%=      5-min Rain = 0
KAM3 082238Z 22009KT 16/07 A3022 RMK A01 T01610065  RH  053%=      5-min Rain = 0
KAM3 082239Z 23008KT 16/06 A3022 RMK A01 T01600064  RH  053%=      5-min Rain = 0
KAM3 082240Z 23009KT 16/06 A3022 RMK A01 T01590063  RH  053%=      5-min Rain = 0
KAM3 082241Z 22008KT 16/06 A3022 RMK A01 T01590062  RH  052%=      5-min Rain = 0
KAM3 082242Z 22007KT 16/06 A3022 RMK A01 T01590062  RH  053%=      5-min Rain = 0
KAM3 082243Z 23007KT 16/06 A3022 RMK A01 T01590063  RH  053%=      5-min Rain = 0
KAM3 082244Z 23008KT 16/06 A3022 RMK A01 T01590064  RH  053%=      5-min Rain = 0
KAM3 082245Z 22007KT 16/06 A3022 RMK A01 T01580064  RH  053%=      5-min Rain = 0
KAM3 082246Z 21007KT 16/06 A3022 RMK A01 T01580064  RH  053%=      5-min Rain = 0
KAM3 082247Z 21005KT 16/06 A3022 RMK A01 T01590064  RH  054%=      5-min Rain = 0
KAM3 082248Z 20006KT 16/07 A3022 RMK A01 T01590065  RH  054%=      5-min Rain = 0
KAM3 082249Z 20008KT 16/07 A3022 RMK A01 T01600066  RH  053%=      5-min Rain = 0
KAM3 082250Z 21007KT 16/07 A3022 RMK A01 T01590066  RH  054%=      5-min Rain = 0
KAM3 082251Z 20006KT 16/07 A3022 RMK A01 T01590066  RH  054%=      5-min Rain = 0
KAM3 082252Z 21006KT 16/07 A3022 RMK A01 T01580066  RH  054%=      5-min Rain = 0
KAM3 082253Z 21008KT 16/07 A3022 RMK A01 T01590067  RH  054%=      5-min Rain = 0
KAM3 082254Z 20008KT 16/07 A3022 RMK A01 T01590066  RH  054%=      5-min Rain = 0
KAM3 082255Z 21007KT 16/07 A3022 RMK A01 T01580067  RH  055%=      5-min Rain = 0
KAM3 082256Z 21008KT 16/07 A3022 RMK A01 T01580067  RH  055%=      5-min Rain = 0
KAM3 082257Z 20007KT 16/07 A3022 RMK A01 T01570067  RH  055%=      5-min Rain = 0
KAM3 082258Z 20008KT 16/07 A3022 RMK A01 T01560067  RH  055%=      5-min Rain = 0
KAM3 082259Z 20009KT 16/07 A3022 RMK A01 T01550066  RH  055%=      5-min Rain = 0
KAM3 082300Z 20008KT 16/07 A3022 RMK A01 T01550066  RH  056%=      5-min Rain = 0
KAM3 082301Z 20007KT 15/07 A3022 RMK A01 T01540067  RH  056%=      5-min Rain = 0
KAM3 082302Z 20008KT 15/07 A3022 RMK A01 T01540067  RH  056%=      5-min Rain = 0
KAM3 082303Z 20007KT 15/07 A3022 RMK A01 T01540067  RH  056%=      5-min Rain = 0
KAM3 082304Z 20008KT 15/07 A3022 RMK A01 T01540067  RH  056%=      5-min Rain = 0
KAM3 082305Z 20008KT 15/07 A3022 RMK A01 T01530067  RH  056%=      5-min Rain = 0
KAM3 082306Z 20008KT 15/07 A3022 RMK A01 T01520067  RH  057%=      5-min Rain = 0
KAM3 082307Z 20008KT 15/07 A3022 RMK A01 T01520067  RH  057%=      5-min Rain = 0
KAM3 082308Z 20008KT 15/07 A3022 RMK A01 T01510067  RH  057%=      5-min Rain = 0
KAM3 082309Z 20007KT 15/07 A3022 RMK A01 T01510067  RH  057%=      5-min Rain = 0
KAM3 082310Z 19008KT 15/07 A3022 RMK A01 T01500067  RH  057%=      5-min Rain = 0
KAM3 082311Z 20007KT 15/07 A3022 RMK A01 T01500067  RH  058%=      5-min Rain = 0
KAM3 082312Z 19008KT 15/07 A3022 RMK A01 T01490067  RH  058%=      5-min Rain = 0
KAM3 082313Z 19007KT 15/07 A3022 RMK A01 T01480067  RH  058%=      5-min Rain = 0
KAM3 082314Z 19007KT 15/07 A3022 RMK A01 T01480067  RH  058%=      5-min Rain = 0
KAM3 082315Z 19007KT 15/07 A3022 RMK A01 T01480067  RH  058%=      5-min Rain = 0
KAM3 082316Z 19007KT 15/07 A3022 RMK A01 T01470066  RH  058%=      5-min Rain = 0
KAM3 082317Z 19007KT 15/07 A3022 RMK A01 T01460066  RH  059%=      5-min Rain = 0
KAM3 082318Z 20007KT 15/07 A3022 RMK A01 T01460066  RH  059%=      5-min Rain = 0
KAM3 082319Z 19007KT 15/07 A3022 RMK A01 T01450066  RH  059%=      5-min Rain = 0
KAM3 082320Z 19007KT 15/07 A3022 RMK A01 T01450066  RH  059%=      5-min Rain = 0
KAM3 082321Z 19007KT 14/07 A3022 RMK A01 T01440066  RH  059%=      5-min Rain = 0
KAM3 082322Z 19007KT 14/07 A3022 RMK A01 T01430065  RH  059%=      5-min Rain = 0
KAM3 082323Z 19007KT 14/07 A3022 RMK A01 T01430065  RH  060%=      5-min Rain = 0
KAM3 082324Z 19006KT 14/07 A3022 RMK A01 T01420065  RH  060%=      5-min Rain = 0
KAM3 082325Z 19007KT 14/07 A3022 RMK A01 T01410065  RH  060%=      5-min Rain = 0
KAM3 082326Z 19007KT 14/07 A3022 RMK A01 T01400065  RH  061%=      5-min Rain = 0
KAM3 082327Z 18006KT 14/07 A3022 RMK A01 T01390065  RH  061%=      5-min Rain = 0
KAM3 082328Z 19006KT 14/07 A3022 RMK A01 T01380065  RH  061%=      5-min Rain = 0
KAM3 082329Z 18006KT 14/07 A3022 RMK A01 T01380065  RH  061%=      5-min Rain = 0
KAM3 082330Z 18006KT 14/07 A3022 RMK A01 T01360065  RH  062%=      5-min Rain = 0
KAM3 082331Z 18006KT 14/06 A3022 RMK A01 T01350064  RH  062%=      5-min Rain = 0
KAM3 082332Z 18006KT 13/06 A3022 RMK A01 T01340064  RH  063%=      5-min Rain = 0
KAM3 082333Z 18007KT 13/06 A3022 RMK A01 T01330064  RH  063%=      5-min Rain = 0
KAM3 082334Z 18007KT 13/06 A3022 RMK A01 T01320064  RH  063%=      5-min Rain = 0
KAM3 082335Z 18007KT 13/06 A3022 RMK A01 T01310064  RH  064%=      5-min Rain = 0
KAM3 082336Z 18008KT 13/06 A3022 RMK A01 T01300064  RH  064%=      5-min Rain = 0
KAM3 082337Z 19007KT 13/06 A3022 RMK A01 T01290063  RH  064%=      5-min Rain = 0
KAM3 082338Z 19007KT 13/06 A3022 RMK A01 T01280063  RH  065%=      5-min Rain = 0
KAM3 082339Z 18008KT 13/06 A3022 RMK A01 T01270063  RH  065%=      5-min Rain = 0
KAM3 082340Z 18008KT 13/06 A3022 RMK A01 T01260063  RH  066%=      5-min Rain = 0
KAM3 082341Z 18008KT 13/06 A3022 RMK A01 T01250063  RH  066%=      5-min Rain = 0
KAM3 082342Z 18008KT 12/06 A3022 RMK A01 T01240063  RH  066%=      5-min Rain = 0
KAM3 082343Z 18008KT 12/06 A3022 RMK A01 T01230063  RH  067%=      5-min Rain = 0
KAM3 082344Z 18008KT 12/06 A3022 RMK A01 T01220063  RH  067%=      5-min Rain = 0
KAM3 082345Z 18008KT 12/06 A3022 RMK A01 T01210063  RH  067%=      5-min Rain = 0
KAM3 082346Z 18008KT 12/06 A3022 RMK A01 T01200062  RH  068%=      5-min Rain = 0
KAM3 082347Z 18008KT 12/06 A3022 RMK A01 T01200062  RH  068%=      5-min Rain = 0
KAM3 082348Z 18009KT 12/06 A3022 RMK A01 T01180062  RH  068%=      5-min Rain = 0
KAM3 082349Z 18008KT 12/06 A3022 RMK A01 T01170062  RH  069%=      5-min Rain = 0
KAM3 082350Z 19009KT 12/06 A3022 RMK A01 T01170062  RH  069%=      5-min Rain = 0
KAM3 082351Z 19009KT 12/06 A3022 RMK A01 T01160062  RH  069%=      5-min Rain = 0
KAM3 082352Z 19008KT 12/06 A3022 RMK A01 T01160062  RH  069%=      5-min Rain = 0
KAM3 082353Z 18008KT 12/06 A3022 RMK A01 T01150062  RH  070%=      5-min Rain = 0
KAM3 082354Z 19008KT 12/06 A3022 RMK A01 T01150062  RH  070%=      5-min Rain = 0
KAM3 082355Z 18008KT 12/06 A3022 RMK A01 T01150061  RH  070%=      5-min Rain = 0
KAM3 082356Z 18008KT 11/06 A3022 RMK A01 T01140062  RH  070%=      5-min Rain = 0
KAM3 082357Z 18008KT 11/06 A3022 RMK A01 T01130061  RH  070%=      5-min Rain = 0
KAM3 082358Z 18009KT 11/06 A3022 RMK A01 T01130061  RH  070%=      5-min Rain = 0
KAM3 082359Z 18009KT 11/06 A3022 RMK A01 T01120061  RH  071%=      5-min Rain = 0
KAM3 090000Z 18009KT 11/06 A3023 RMK A01 T01110061  RH  071%=      5-min Rain = 0
KAM3 090001Z 18009KT 11/06 A3023 RMK A01 T01100060  RH  071%=      5-min Rain = 0
KAM3 090002Z 18008KT 11/06 A3023 RMK A01 T01090060  RH  072%=      5-min Rain = 0
KAM3 090003Z 18008KT 11/06 A3023 RMK A01 T01080060  RH  072%=      5-min Rain = 0
KAM3 090004Z 18008KT 11/06 A3022 RMK A01 T01070059  RH  072%=      5-min Rain = 0
KAM3 090005Z 18008KT 11/06 A3022 RMK A01 T01060060  RH  073%=      5-min Rain = 0
KAM3 090006Z 18009KT 11/06 A3022 RMK A01 T01060060  RH  073%=      5-min Rain = 0
KAM3 090007Z 18009KT 11/06 A3022 RMK A01 T01050059  RH  073%=      5-min Rain = 0
KAM3 090008Z 18009KT 11/06 A3023 RMK A01 T01050059  RH  073%=      5-min Rain = 0
KAM3 090009Z 18009KT 10/06 A3023 RMK A01 T01040059  RH  074%=      5-min Rain = 0
KAM3 090010Z 18009KT 10/06 A3023 RMK A01 T01040060  RH  074%=      5-min Rain = 0
KAM3 090011Z 18009KT 10/06 A3023 RMK A01 T01030059  RH  074%=      5-min Rain = 0
KAM3 090012Z 18009KT 10/06 A3023 RMK A01 T01030059  RH  074%=      5-min Rain = 0
KAM3 090013Z 18009KT 10/06 A3023 RMK A01 T01030059  RH  074%=      5-min Rain = 0
KAM3 090014Z 18009KT 10/06 A3023 RMK A01 T01020059  RH  075%=      5-min Rain = 0
KAM3 090015Z 18009KT 10/06 A3023 RMK A01 T01020059  RH  075%=      5-min Rain = 0
KAM3 090016Z 18009KT 10/06 A3023 RMK A01 T01010059  RH  075%=      5-min Rain = 0
KAM3 090017Z 18009KT 10/06 A3023 RMK A01 T01010059  RH  075%=      5-min Rain = 0
KAM3 090018Z 18009KT 10/06 A3023 RMK A01 T01010059  RH  075%=      5-min Rain = 0
KAM3 090019Z 18009KT 10/06 A3023 RMK A01 T01000059  RH  076%=      5-min Rain = 0
KAM3 090020Z 18009KT 10/06 A3023 RMK A01 T01000059  RH  076%=      5-min Rain = 0
KAM3 090021Z 18010KT 10/06 A3023 RMK A01 T01000059  RH  076%=      5-min Rain = 0
KAM3 090022Z 18010KT 10/06 A3023 RMK A01 T01000059  RH  076%=      5-min Rain = 0
KAM3 090023Z 18010KT 10/06 A3023 RMK A01 T00990059  RH  076%=      5-min Rain = 0
KAM3 090024Z 18010KT 10/06 A3023 RMK A01 T00990059  RH  076%=      5-min Rain = 0
KAM3 090025Z 18010KT 10/06 A3023 RMK A01 T00990059  RH  076%=      5-min Rain = 0
KAM3 090026Z 18010KT 10/06 A3023 RMK A01 T00990059  RH  076%=      5-min Rain = 0
KAM3 090027Z 18010KT 10/06 A3023 RMK A01 T00980059  RH  076%=      5-min Rain = 0
KAM3 090028Z 18010KT 10/06 A3023 RMK A01 T00980059  RH  076%=      5-min Rain = 0
KAM3 090029Z 19010KT 10/06 A3023 RMK A01 T00990059  RH  076%=      5-min Rain = 0
KAM3 090030Z 18010KT 10/06 A3023 RMK A01 T00980058  RH  076%=      5-min Rain = 0
KAM3 090031Z 18010KT 10/06 A3023 RMK A01 T00980058  RH  077%=      5-min Rain = 0
KAM3 090032Z 18010KT 10/06 A3023 RMK A01 T00970058  RH  077%=      5-min Rain = 0
KAM3 090033Z 18009KT 10/06 A3023 RMK A01 T00980059  RH  077%=      5-min Rain = 0
KAM3 090034Z 18009KT 10/06 A3023 RMK A01 T00980059  RH  077%=      5-min Rain = 0
KAM3 090035Z 18009KT 10/06 A3023 RMK A01 T00970058  RH  077%=      5-min Rain = 0
KAM3 090036Z 18009KT 10/06 A3023 RMK A01 T00970059  RH  077%=      5-min Rain = 0
KAM3 090037Z 18009KT 10/06 A3023 RMK A01 T00970058  RH  077%=      5-min Rain = 0
KAM3 090038Z 18009KT 10/06 A3023 RMK A01 T00960058  RH  077%=      5-min Rain = 0
KAM3 090039Z 18008KT 10/06 A3023 RMK A01 T00950057  RH  077%=      5-min Rain = 0
KAM3 090040Z 18009KT 09/06 A3023 RMK A01 T00930056  RH  078%=      5-min Rain = 0
KAM3 090041Z 18009KT 09/06 A3023 RMK A01 T00920056  RH  078%=      5-min Rain = 0
KAM3 090042Z 18009KT 09/06 A3023 RMK A01 T00910056  RH  079%=      5-min Rain = 0
KAM3 090043Z 18009KT 09/06 A3023 RMK A01 T00900056  RH  079%=      5-min Rain = 0
KAM3 090044Z 18009KT 09/06 A3023 RMK A01 T00900056  RH  079%=      5-min Rain = 0
KAM3 090045Z 18009KT 09/06 A3023 RMK A01 T00890055  RH  079%=      5-min Rain = 0
KAM3 090046Z 18009KT 09/06 A3023 RMK A01 T00880055  RH  080%=      5-min Rain = 0
KAM3 090047Z 18009KT 09/06 A3023 RMK A01 T00880055  RH  080%=      5-min Rain = 0
KAM3 090048Z 18009KT 09/06 A3023 RMK A01 T00880056  RH  080%=      5-min Rain = 0
KAM3 090049Z 18009KT 09/06 A3023 RMK A01 T00880056  RH  080%=      5-min Rain = 0
KAM3 090050Z 18009KT 09/06 A3023 RMK A01 T00880055  RH  080%=      5-min Rain = 0
KAM3 090051Z 18008KT 09/06 A3024 RMK A01 T00870055  RH  080%=      5-min Rain = 0
KAM3 090052Z 18008KT 09/06 A3024 RMK A01 T00870055  RH  080%=      5-min Rain = 0
KAM3 090053Z 18009KT 09/06 A3024 RMK A01 T00860055  RH  081%=      5-min Rain = 0
KAM3 090054Z 18008KT 09/06 A3024 RMK A01 T00860055  RH  081%=      5-min Rain = 0
KAM3 090055Z 18008KT 09/06 A3024 RMK A01 T00860055  RH  081%=      5-min Rain = 0
KAM3 090056Z 18008KT 09/06 A3024 RMK A01 T00860055  RH  081%=      5-min Rain = 0
KAM3 090057Z 18008KT 09/05 A3024 RMK A01 T00850054  RH  081%=      5-min Rain = 0
KAM3 090058Z 18008KT 08/05 A3024 RMK A01 T00840054  RH  081%=      5-min Rain = 0
KAM3 090059Z 18008KT 08/05 A3024 RMK A01 T00840054  RH  082%=      5-min Rain = 0
KAM3 090100Z 18008KT 08/05 A3024 RMK A01 T00830054  RH  082%=      5-min Rain = 0
KAM3 090101Z 18008KT 08/05 A3024 RMK A01 T00830054  RH  082%=      5-min Rain = 0
KAM3 090102Z 18008KT 08/05 A3024 RMK A01 T00820053  RH  082%=      5-min Rain = 0
KAM3 090103Z 18009KT 08/05 A3024 RMK A01 T00810054  RH  083%=      5-min Rain = 0
KAM3 090104Z 18008KT 08/05 A3024 RMK A01 T00810054  RH  083%=      5-min Rain = 0
KAM3 090105Z 18008KT 08/05 A3024 RMK A01 T00810053  RH  083%=      5-min Rain = 0
KAM3 090106Z 18008KT 08/05 A3024 RMK A01 T00800053  RH  083%=      5-min Rain = 0
KAM3 090107Z 18008KT 08/05 A3024 RMK A01 T00790052  RH  083%=      5-min Rain = 0
KAM3 090108Z 18008KT 08/05 A3024 RMK A01 T00790053  RH  084%=      5-min Rain = 0
KAM3 090109Z 18008KT 08/05 A3024 RMK A01 T00780052  RH  084%=      5-min Rain = 0
KAM3 090110Z 17008KT 08/05 A3024 RMK A01 T00770052  RH  084%=      5-min Rain = 0
KAM3 090111Z 17008KT 08/05 A3024 RMK A01 T00760052  RH  084%=      5-min Rain = 0
KAM3 090112Z 17008KT 08/05 A3024 RMK A01 T00760051  RH  085%=      5-min Rain = 0
KAM3 090113Z 17009KT 08/05 A3024 RMK A01 T00750052  RH  085%=      5-min Rain = 0
KAM3 090114Z 17008KT 08/05 A3024 RMK A01 T00750052  RH  086%=      5-min Rain = 0
KAM3 090115Z 18009KT 08/05 A3024 RMK A01 T00750052  RH  086%=      5-min Rain = 0
KAM3 090116Z 17009KT 07/05 A3024 RMK A01 T00740052  RH  086%=      5-min Rain = 0
KAM3 090117Z 17009KT 07/05 A3024 RMK A01 T00740052  RH  086%=      5-min Rain = 0
KAM3 090118Z 17009KT 07/05 A3024 RMK A01 T00730052  RH  086%=      5-min Rain = 0
KAM3 090119Z 17009KT 07/05 A3024 RMK A01 T00730052  RH  087%=      5-min Rain = 0
KAM3 090120Z 17009KT 07/05 A3024 RMK A01 T00730052  RH  087%=      5-min Rain = 0
KAM3 090121Z 17009KT 07/05 A3024 RMK A01 T00730053  RH  087%=      5-min Rain = 0
KAM3 090122Z 17009KT 07/05 A3024 RMK A01 T00730053  RH  087%=      5-min Rain = 0
KAM3 090123Z 17008KT 07/05 A3024 RMK A01 T00730052  RH  087%=      5-min Rain = 0
KAM3 090124Z 17009KT 07/05 A3024 RMK A01 T00730052  RH  087%=      5-min Rain = 0
KAM3 090125Z 17009KT 07/05 A3024 RMK A01 T00730053  RH  087%=      5-min Rain = 0
KAM3 090126Z 17009KT 07/05 A3024 RMK A01 T00730054  RH  088%=      5-min Rain = 0
KAM3 090127Z 17009KT 07/05 A3024 RMK A01 T00730054  RH  088%=      5-min Rain = 0
KAM3 090128Z 17009KT 07/05 A3024 RMK A01 T00730054  RH  088%=      5-min Rain = 0
KAM3 090129Z 17008KT 07/05 A3024 RMK A01 T00730054  RH  088%=      5-min Rain = 0
KAM3 090130Z 17008KT 07/05 A3024 RMK A01 T00730054  RH  088%=      5-min Rain = 0
KAM3 090131Z 17008KT 07/05 A3024 RMK A01 T00730054  RH  088%=      5-min Rain = 0
KAM3 090132Z 17008KT 07/05 A3024 RMK A01 T00730054  RH  088%=      5-min Rain = 0
KAM3 090133Z 17008KT 07/06 A3024 RMK A01 T00730055  RH  088%=      5-min Rain = 0
KAM3 090134Z 17008KT 07/06 A3024 RMK A01 T00730055  RH  088%=      5-min Rain = 0
KAM3 090135Z 17008KT 07/06 A3024 RMK A01 T00730055  RH  088%=      5-min Rain = 0
KAM3 090136Z 17008KT 07/06 A3024 RMK A01 T00730055  RH  088%=      5-min Rain = 0
KAM3 090137Z 17009KT 07/05 A3024 RMK A01 T00730054  RH  088%=      5-min Rain = 0
KAM3 090138Z 17008KT 07/05 A3024 RMK A01 T00730054  RH  088%=      5-min Rain = 0
KAM3 090139Z 17008KT 07/05 A3024 RMK A01 T00720054  RH  088%=      5-min Rain = 0
KAM3 090140Z 17008KT 07/05 A3024 RMK A01 T00720054  RH  088%=      5-min Rain = 0
KAM3 090141Z 17008KT 07/05 A3024 RMK A01 T00720054  RH  089%=      5-min Rain = 0
KAM3 090142Z 18008KT 07/05 A3024 RMK A01 T00710054  RH  089%=      5-min Rain = 0
KAM3 090143Z 18008KT 07/05 A3025 RMK A01 T00710054  RH  089%=      5-min Rain = 0
KAM3 090144Z 18008KT 07/05 A3025 RMK A01 T00710054  RH  089%=      5-min Rain = 0
KAM3 090145Z 18008KT 07/05 A3025 RMK A01 T00710054  RH  089%=      5-min Rain = 0
KAM3 090146Z 18008KT 07/05 A3025 RMK A01 T00700054  RH  089%=      5-min Rain = 0
KAM3 090147Z 18008KT 07/05 A3025 RMK A01 T00700054  RH  089%=      5-min Rain = 0
KAM3 090148Z 18007KT 07/05 A3025 RMK A01 T00700054  RH  089%=      5-min Rain = 0
KAM3 090149Z 18007KT 07/05 A3025 RMK A01 T00700053  RH  089%=      5-min Rain = 0
KAM3 090150Z 18007KT 07/05 A3025 RMK A01 T00700054  RH  089%=      5-min Rain = 0
KAM3 090151Z 18007KT 07/05 A3025 RMK A01 T00700053  RH  089%=      5-min Rain = 0
KAM3 090152Z 18006KT 07/05 A3025 RMK A01 T00700053  RH  089%=      5-min Rain = 0
KAM3 090153Z 18006KT 07/05 A3025 RMK A01 T00690053  RH  089%=      5-min Rain = 0
KAM3 090154Z 18006KT 07/05 A3025 RMK A01 T00680052  RH  089%=      5-min Rain = 0
KAM3 090155Z 18006KT 07/05 A3025 RMK A01 T00670051  RH  090%=      5-min Rain = 0
KAM3 090156Z 18006KT 07/05 A3025 RMK A01 T00660052  RH  091%=      5-min Rain = 0
KAM3 090157Z 18006KT 07/05 A3025 RMK A01 T00660053  RH  091%=      5-min Rain = 0
KAM3 090158Z 18006KT 07/05 A3025 RMK A01 T00650053  RH  092%=      5-min Rain = 0
KAM3 090159Z 18006KT 07/05 A3025 RMK A01 T00650053  RH  092%=      5-min Rain = 0
KAM3 090200Z 18006KT 07/05 A3025 RMK A01 T00650054  RH  093%=      5-min Rain = 0
KAM3 090201Z 18006KT 06/05 A3025 RMK A01 T00640054  RH  093%=      5-min Rain = 0
KAM3 090202Z 18006KT 06/05 A3025 RMK A01 T00640054  RH  093%=      5-min Rain = 0
KAM3 090203Z 18006KT 06/06 A3025 RMK A01 T00640055  RH  094%=      5-min Rain = 0
KAM3 090204Z 17006KT 06/06 A3025 RMK A01 T00640056  RH  095%=      5-min Rain = 0
KAM3 090205Z 17006KT 06/06 A3025 RMK A01 T00640055  RH  094%=      5-min Rain = 0
KAM3 090206Z 17007KT 06/06 A3025 RMK A01 T00640055  RH  095%=      5-min Rain = 0
KAM3 090207Z 17007KT 06/06 A3025 RMK A01 T00630055  RH  094%=      5-min Rain = 0
KAM3 090208Z 17007KT 06/06 A3025 RMK A01 T00630055  RH  095%=      5-min Rain = 0
KAM3 090209Z 17007KT 06/06 A3025 RMK A01 T00620056  RH  096%=      5-min Rain = 0
KAM3 090210Z 17007KT 06/06 A3025 RMK A01 T00620056  RH  096%=      5-min Rain = 0
KAM3 090211Z 17007KT 06/06 A3025 RMK A01 T00610057  RH  097%=      5-min Rain = 0
KAM3 090212Z 17007KT 06/06 A3025 RMK A01 T00610059  RH  098%=      5-min Rain = 0
KAM3 090213Z 17007KT 06/06 A3025 RMK A01 T00610058  RH  098%=      5-min Rain = 0
KAM3 090214Z 18007KT 06/06 A3025 RMK A01 T00610058  RH  098%=      5-min Rain = 0
KAM3 090215Z 18006KT 06/06 A3025 RMK A01 T00610058  RH  098%=      5-min Rain = 0
KAM3 090216Z 18007KT 06/06 A3025 RMK A01 T00600059  RH  099%=      5-min Rain = 0
KAM3 090217Z 18006KT 06/06 A3025 RMK A01 T00600060  RH  100%=      5-min Rain = 0
KAM3 090218Z 18006KT 06/06 A3025 RMK A01 T00610060  RH  099%=      5-min Rain = 0
KAM3 090219Z 18006KT 06/06 A3025 RMK A01 T00610058  RH  098%=      5-min Rain = 0
KAM3 090220Z 18006KT 06/06 A3025 RMK A01 T00600057  RH  098%=      5-min Rain = 0
KAM3 090221Z 18005KT 06/06 A3025 RMK A01 T00600057  RH  098%=      5-min Rain = 0
KAM3 090222Z 18006KT 06/06 A3026 RMK A01 T00600057  RH  098%=      5-min Rain = 0
KAM3 090223Z 18005KT 06/06 A3026 RMK A01 T00600058  RH  099%=      5-min Rain = 0
KAM3 090224Z 18006KT 06/06 A3026 RMK A01 T00590057  RH  099%=      5-min Rain = 0
KAM3 090225Z 18006KT 06/06 A3026 RMK A01 T00590057  RH  099%=      5-min Rain = 0
KAM3 090226Z 18006KT 06/06 A3026 RMK A01 T00590059  RH  100%=      5-min Rain = 0
KAM3 090227Z 19007KT 06/06 A3026 RMK A01 T00590059  RH  100%=      5-min Rain = 0
KAM3 090228Z 19007KT 06/06 A3026 RMK A01 T00590059  RH  100%=      5-min Rain = 0
KAM3 090229Z 19007KT 06/06 A3026 RMK A01 T00590059  RH  100%=      5-min Rain = 0
KAM3 090230Z 19008KT 06/06 A3026 RMK A01 T00610061  RH  100%=      5-min Rain = 0
KAM3 090231Z 19008KT 06/06 A3026 RMK A01 T00620062  RH  100%=      5-min Rain = 0
KAM3 090232Z 19008KT 06/06 A3026 RMK A01 T00640063  RH  099%=      5-min Rain = 0
KAM3 090233Z 19007KT 07/06 A3026 RMK A01 T00650062  RH  098%=      5-min Rain = 0
KAM3 090234Z 19007KT 07/06 A3026 RMK A01 T00660062  RH  097%=      5-min Rain = 0
KAM3 090235Z 19007KT 07/06 A3026 RMK A01 T00670061  RH  096%=      5-min Rain = 0
KAM3 090236Z 19007KT 07/06 A3026 RMK A01 T00670060  RH  095%=      5-min Rain = 0
KAM3 090237Z 19007KT 07/06 A3026 RMK A01 T00680059  RH  095%=      5-min Rain = 0
KAM3 090238Z 19006KT 07/06 A3026 RMK A01 T00670058  RH  094%=      5-min Rain = 0
KAM3 090239Z 20005KT 07/06 A3026 RMK A01 T00680058  RH  094%=      5-min Rain = 0
KAM3 090240Z 20005KT 07/06 A3026 RMK A01 T00670058  RH  094%=      5-min Rain = 0
KAM3 090241Z 20005KT 07/06 A3026 RMK A01 T00670058  RH  094%=      5-min Rain = 0
KAM3 090242Z 19004KT 07/06 A3026 RMK A01 T00670058  RH  094%=      5-min Rain = 0
KAM3 090243Z 20005KT 07/06 A3026 RMK A01 T00670058  RH  094%=      5-min Rain = 0
KAM3 090244Z 20005KT 07/06 A3026 RMK A01 T00660057  RH  094%=      5-min Rain = 0
KAM3 090245Z 20004KT 07/06 A3026 RMK A01 T00660057  RH  094%=      5-min Rain = 0
KAM3 090246Z 20004KT 07/06 A3026 RMK A01 T00650058  RH  095%=      5-min Rain = 0
KAM3 090247Z 20004KT 07/06 A3026 RMK A01 T00650058  RH  095%=      5-min Rain = 0
KAM3 090248Z 20004KT 07/06 A3026 RMK A01 T00650058  RH  095%=      5-min Rain = 0
KAM3 090249Z 20004KT 06/06 A3026 RMK A01 T00640057  RH  095%=      5-min Rain = 0
KAM3 090250Z 21003KT 06/06 A3026 RMK A01 T00640058  RH  096%=      5-min Rain = 0
KAM3 090251Z 22002KT 06/06 A3026 RMK A01 T00630058  RH  096%=      5-min Rain = 0
KAM3 090252Z 23002KT 06/06 A3026 RMK A01 T00630059  RH  097%=      5-min Rain = 0
KAM3 090253Z 24002KT 06/06 A3026 RMK A01 T00630060  RH  098%=      5-min Rain = 0
KAM3 090254Z 23003KT 06/06 A3026 RMK A01 T00630061  RH  099%=      5-min Rain = 0
KAM3 090255Z 24002KT 06/06 A3026 RMK A01 T00630061  RH  099%=      5-min Rain = 0
KAM3 090256Z 23002KT 06/06 A3026 RMK A01 T00630062  RH  099%=      5-min Rain = 0
KAM3 090257Z 22004KT 06/06 A3026 RMK A01 T00640062  RH  099%=      5-min Rain = 0
KAM3 090258Z 22004KT 06/06 A3026 RMK A01 T00640062  RH  098%=      5-min Rain = 0
KAM3 090259Z 21004KT 07/06 A3026 RMK A01 T00660061  RH  097%=      5-min Rain = 0
KAM3 090300Z 21004KT 07/06 A3026 RMK A01 T00660059  RH  096%=      5-min Rain = 0
KAM3 090301Z 21005KT 07/06 A3026 RMK A01 T00660059  RH  095%=      5-min Rain = 0
KAM3 090302Z 21005KT 07/06 A3026 RMK A01 T00660058  RH  095%=      5-min Rain = 0
KAM3 090303Z 20004KT 07/06 A3026 RMK A01 T00660057  RH  094%=      5-min Rain = 0
KAM3 090304Z 20004KT 07/06 A3026 RMK A01 T00660058  RH  095%=      5-min Rain = 0
KAM3 090305Z 20005KT 07/06 A3026 RMK A01 T00660058  RH  095%=      5-min Rain = 0
KAM3 090306Z 20006KT 07/06 A3026 RMK A01 T00660058  RH  095%=      5-min Rain = 0
KAM3 090307Z 20005KT 07/06 A3026 RMK A01 T00660059  RH  095%=      5-min Rain = 0
KAM3 090308Z 21004KT 07/06 A3026 RMK A01 T00660057  RH  094%=      5-min Rain = 0
KAM3 090309Z 20004KT 07/06 A3026 RMK A01 T00660056  RH  093%=      5-min Rain = 0
KAM3 090310Z 21005KT 07/06 A3026 RMK A01 T00650057  RH  094%=      5-min Rain = 0
KAM3 090311Z 20005KT 07/06 A3026 RMK A01 T00650057  RH  095%=      5-min Rain = 0
KAM3 090312Z 20005KT 07/06 A3026 RMK A01 T00650057  RH  095%=      5-min Rain = 0
KAM3 090313Z 20004KT 07/06 A3026 RMK A01 T00650056  RH  094%=      5-min Rain = 0
KAM3 090314Z 20004KT 07/06 A3026 RMK A01 T00650056  RH  094%=      5-min Rain = 0
KAM3 090315Z 20004KT 06/06 A3026 RMK A01 T00640055  RH  094%=      5-min Rain = 0
KAM3 090316Z 20004KT 06/06 A3026 RMK A01 T00630055  RH  094%=      5-min Rain = 0
KAM3 090317Z 20004KT 06/06 A3026 RMK A01 T00620055  RH  095%=      5-min Rain = 0
KAM3 090318Z 20005KT 06/06 A3026 RMK A01 T00620057  RH  097%=      5-min Rain = 0
KAM3 090319Z 20005KT 06/06 A3026 RMK A01 T00620058  RH  097%=      5-min Rain = 0
KAM3 090320Z 20005KT 06/06 A3026 RMK A01 T00620057  RH  097%=      5-min Rain = 0
KAM3 090321Z 20004KT 06/06 A3026 RMK A01 T00620058  RH  097%=      5-min Rain = 0
KAM3 090322Z 21004KT 06/06 A3026 RMK A01 T00610057  RH  097%=      5-min Rain = 0
KAM3 090323Z 21004KT 06/06 A3026 RMK A01 T00610056  RH  097%=      5-min Rain = 0
KAM3 090324Z 21004KT 06/06 A3026 RMK A01 T00600056  RH  097%=      5-min Rain = 0
KAM3 090325Z 21004KT 06/06 A3026 RMK A01 T00590057  RH  099%=      5-min Rain = 0
KAM3 090326Z 21004KT 06/06 A3026 RMK A01 T00590059  RH  100%=      5-min Rain = 0
KAM3 090327Z 21004KT 06/06 A3026 RMK A01 T00590059  RH  100%=      5-min Rain = 0
KAM3 090328Z 22003KT 06/06 A3026 RMK A01 T00590059  RH  100%=      5-min Rain = 0
KAM3 090329Z 22003KT 06/06 A3026 RMK A01 T00590059  RH  100%=      5-min Rain = 0
KAM3 090330Z 22003KT 06/06 A3026 RMK A01 T00590059  RH  100%=      5-min Rain = 0
KAM3 090331Z 23002KT 06/06 A3026 RMK A01 T00590059  RH  100%=      5-min Rain = 0
KAM3 090332Z 23002KT 06/06 A3026 RMK A01 T00590059  RH  100%=      5-min Rain = 0
KAM3 090333Z 22002KT 06/06 A3026 RMK A01 T00590059  RH  100%=      5-min Rain = 0
KAM3 090334Z 23002KT 06/06 A3026 RMK A01 T00590059  RH  100%=      5-min Rain = 0
KAM3 090335Z 23002KT 06/06 A3026 RMK A01 T00590059  RH  100%=      5-min Rain = 0
KAM3 090336Z 23002KT 06/06 A3026 RMK A01 T00580058  RH  100%=      5-min Rain = 0
KAM3 090337Z 22002KT 06/06 A3026 RMK A01 T00580058  RH  100%=      5-min Rain = 0
KAM3 090338Z 22002KT 06/06 A3026 RMK A01 T00590059  RH  100%=      5-min Rain = 0
KAM3 090339Z 22002KT 06/06 A3026 RMK A01 T00590059  RH  100%=      5-min Rain = 0
KAM3 090340Z 23001KT 06/06 A3026 RMK A01 T00600060  RH  100%=      5-min Rain = 0
KAM3 090341Z 23002KT 06/06 A3026 RMK A01 T00600060  RH  100%=      5-min Rain = 0
KAM3 090342Z 24002KT 06/06 A3027 RMK A01 T00600060  RH  100%=      5-min Rain = 0
KAM3 090343Z 24002KT 06/06 A3027 RMK A01 T00600060  RH  100%=      5-min Rain = 0
KAM3 090344Z 24001KT 06/06 A3027 RMK A01 T00600060  RH  100%=      5-min Rain = 0
KAM3 090345Z 24001KT 06/06 A3027 RMK A01 T00600060  RH  100%=      5-min Rain = 0
KAM3 090346Z 24001KT 06/06 A3027 RMK A01 T00600060  RH  100%=      5-min Rain = 0
KAM3 090347Z 24001KT 06/06 A3027 RMK A01 T00600060  RH  100%=      5-min Rain = 0
KAM3 090348Z 24000KT 06/06 A3027 RMK A01 T00600060  RH  100%=      5-min Rain = 0
KAM3 090349Z 24000KT 06/06 A3027 RMK A01 T00600060  RH  100%=      5-min Rain = 0
KAM3 090350Z 26000KT 06/06 A3027 RMK A01 T00600060  RH  100%=      5-min Rain = 0
KAM3 090351Z 30001KT 06/06 A3027 RMK A01 T00600060  RH  100%=      5-min Rain = 0
KAM3 090352Z 28001KT 06/06 A3027 RMK A01 T00600060  RH  100%=      5-min Rain = 0
KAM3 090353Z 28001KT 06/06 A3027 RMK A01 T00600060  RH  100%=      5-min Rain = 0
KAM3 090354Z 27001KT 06/06 A3027 RMK A01 T00600060  RH  100%=      5-min Rain = 0
KAM3 090355Z 26002KT 06/06 A3027 RMK A01 T00600060  RH  100%=      5-min Rain = 0
KAM3 090356Z 26002KT 06/06 A3027 RMK A01 T00600060  RH  100%=      5-min Rain = 0
KAM3 090357Z 25002KT 06/06 A3027 RMK A01 T00600060  RH  100%=      5-min Rain = 0
KAM3 090358Z 25002KT 06/06 A3027 RMK A01 T00600060  RH  100%=      5-min Rain = 0
KAM3 090359Z 25001KT 06/06 A3027 RMK A01 T00600060  RH  100%=      5-min Rain = 0
KAM3 090400Z 25001KT 06/06 A3027 RMK A01 T00600060  RH  100%=      5-min Rain = 0
KAM3 090401Z 25001KT 06/06 A3027 RMK A01 T00600060  RH  100%=      5-min Rain = 0
KAM3 090402Z 25000KT 06/06 A3027 RMK A01 T00590059  RH  100%=      5-min Rain = 0
KAM3 090403Z 00000KT 06/06 A3027 RMK A01 T00580058  RH  100%=      5-min Rain = 0
KAM3 090404Z 00000KT 06/06 A3027 RMK A01 T00560056  RH  100%=      5-min Rain = 0
KAM3 090405Z 00000KT 05/05 A3027 RMK A01 T00540054  RH  100%=      5-min Rain = 0
KAM3 090406Z 00000KT 05/05 A3027 RMK A01 T00530053  RH  100%=      5-min Rain = 0
KAM3 090407Z 00000KT 05/05 A3027 RMK A01 T00510051  RH  100%=      5-min Rain = 0
KAM3 090408Z 00000KT 05/05 A3027 RMK A01 T00500050  RH  100%=      5-min Rain = 0
KAM3 090409Z 00000KT 05/05 A3027 RMK A01 T00500050  RH  100%=      5-min Rain = 0
KAM3 090410Z 00000KT 05/05 A3027 RMK A01 T00500050  RH  100%=      5-min Rain = 0
KAM3 090411Z 00000KT 05/05 A3027 RMK A01 T00510051  RH  100%=      5-min Rain = 0
KAM3 090412Z 00000KT 05/05 A3027 RMK A01 T00520052  RH  100%=      5-min Rain = 0
KAM3 090413Z 25000KT 05/05 A3027 RMK A01 T00530053  RH  100%=      5-min Rain = 0
KAM3 090414Z 00000KT 05/05 A3027 RMK A01 T00530053  RH  100%=      5-min Rain = 0
KAM3 090415Z 25000KT 05/05 A3027 RMK A01 T00540054  RH  100%=      5-min Rain = 0
KAM3 090416Z 25000KT 05/05 A3027 RMK A01 T00540054  RH  100%=      5-min Rain = 0
KAM3 090417Z 25000KT 06/06 A3027 RMK A01 T00550055  RH  100%=      5-min Rain = 0
KAM3 090418Z 00000KT 06/06 A3027 RMK A01 T00550055  RH  100%=      5-min Rain = 0
KAM3 090419Z 25000KT 06/06 A3027 RMK A01 T00550055  RH  100%=      5-min Rain = 0
KAM3 090420Z 25001KT 06/06 A3027 RMK A01 T00550055  RH  100%=      5-min Rain = 0
KAM3 090421Z 22001KT 06/06 A3027 RMK A01 T00560056  RH  100%=      5-min Rain = 0
KAM3 090422Z 21002KT 06/06 A3027 RMK A01 T00560056  RH  100%=      5-min Rain = 0
KAM3 090423Z 21002KT 06/06 A3027 RMK A01 T00570057  RH  100%=      5-min Rain = 0
KAM3 090424Z 21002KT 06/06 A3027 RMK A01 T00570057  RH  100%=      5-min Rain = 0
KAM3 090425Z 21002KT 06/06 A3027 RMK A01 T00580058  RH  100%=      5-min Rain = 0
KAM3 090426Z 21002KT 06/06 A3027 RMK A01 T00580058  RH  100%=      5-min Rain = 0
KAM3 090427Z 21002KT 06/06 A3027 RMK A01 T00580058  RH  100%=      5-min Rain = 0
KAM3 090428Z 21002KT 06/06 A3027 RMK A01 T00580058  RH  100%=      5-min Rain = 0
KAM3 090429Z 21002KT 06/06 A3027 RMK A01 T00590059  RH  100%=      5-min Rain = 0
KAM3 090430Z 21002KT 06/06 A3027 RMK A01 T00590058  RH  100%=      5-min Rain = 0
KAM3 090431Z 21002KT 06/06 A3027 RMK A01 T00580058  RH  100%=      5-min Rain = 0
KAM3 090432Z 21002KT 06/06 A3027 RMK A01 T00580058  RH  100%=      5-min Rain = 0
KAM3 090433Z 21002KT 06/06 A3027 RMK A01 T00580058  RH  100%=      5-min Rain = 0
KAM3 090434Z 21003KT 06/06 A3027 RMK A01 T00570057  RH  100%=      5-min Rain = 0
KAM3 090435Z 21003KT 06/06 A3027 RMK A01 T00580058  RH  100%=      5-min Rain = 0
KAM3 090436Z 21003KT 06/06 A3027 RMK A01 T00580057  RH  100%=      5-min Rain = 0
KAM3 090437Z 21004KT 06/06 A3027 RMK A01 T00580058  RH  100%=      5-min Rain = 0
KAM3 090438Z 21004KT 06/06 A3027 RMK A01 T00580057  RH  100%=      5-min Rain = 0
KAM3 090439Z 21004KT 06/06 A3027 RMK A01 T00570057  RH  100%=      5-min Rain = 0
KAM3 090440Z 21004KT 06/06 A3027 RMK A01 T00560056  RH  100%=      5-min Rain = 0
KAM3 090441Z 21003KT 06/06 A3027 RMK A01 T00550055  RH  100%=      5-min Rain = 0
KAM3 090442Z 21003KT 05/05 A3027 RMK A01 T00530053  RH  100%=      5-min Rain = 0
KAM3 090443Z 22003KT 05/05 A3027 RMK A01 T00520052  RH  100%=      5-min Rain = 0
KAM3 090444Z 22003KT 05/05 A3027 RMK A01 T00510051  RH  100%=      5-min Rain = 0
KAM3 090445Z 22003KT 05/05 A3027 RMK A01 T00490049  RH  100%=      5-min Rain = 0
KAM3 090446Z 22003KT 05/05 A3027 RMK A01 T00480048  RH  100%=      5-min Rain = 0
KAM3 090447Z 22003KT 05/05 A3027 RMK A01 T00480048  RH  100%=      5-min Rain = 0
KAM3 090448Z 22003KT 05/05 A3027 RMK A01 T00470047  RH  100%=      5-min Rain = 0
KAM3 090449Z 22004KT 05/05 A3027 RMK A01 T00470047  RH  100%=      5-min Rain = 0
KAM3 090450Z 22004KT 05/05 A3027 RMK A01 T00470047  RH  100%=      5-min Rain = 0
KAM3 090451Z 22004KT 05/05 A3027 RMK A01 T00470047  RH  100%=      5-min Rain = 0
KAM3 090452Z 22004KT 05/05 A3027 RMK A01 T00480048  RH  100%=      5-min Rain = 0
KAM3 090453Z 22004KT 05/05 A3027 RMK A01 T00480048  RH  100%=      5-min Rain = 0
KAM3 090454Z 22004KT 05/05 A3027 RMK A01 T00480048  RH  100%=      5-min Rain = 0
KAM3 090455Z 22004KT 05/05 A3027 RMK A01 T00480048  RH  100%=      5-min Rain = 0
KAM3 090456Z 22004KT 05/05 A3027 RMK A01 T00480048  RH  100%=      5-min Rain = 0
KAM3 090457Z 22004KT 05/05 A3027 RMK A01 T00470047  RH  100%=      5-min Rain = 0
KAM3 090458Z 22004KT 05/05 A3027 RMK A01 T00470047  RH  100%=      5-min Rain = 0
KAM3 090459Z 22005KT 05/05 A3027 RMK A01 T00470047  RH  100%=      5-min Rain = 0
KAM3 090500Z 22005KT 05/05 A3027 RMK A01 T00470047  RH  100%=      5-min Rain = 0
KAM3 090501Z 22005KT 05/05 A3027 RMK A01 T00470047  RH  100%=      5-min Rain = 0
KAM3 090502Z 22005KT 05/05 A3027 RMK A01 T00470047  RH  100%=      5-min Rain = 0
KAM3 090503Z 22005KT 05/05 A3027 RMK A01 T00470047  RH  100%=      5-min Rain = 0
KAM3 090504Z 22005KT 05/05 A3027 RMK A01 T00470047  RH  100%=      5-min Rain = 0
KAM3 090505Z 21005KT 05/05 A3027 RMK A01 T00470047  RH  100%=      5-min Rain = 0
KAM3 090506Z 22005KT 05/05 A3027 RMK A01 T00470047  RH  100%=      5-min Rain = 0
KAM3 090507Z 21004KT 05/05 A3027 RMK A01 T00470047  RH  100%=      5-min Rain = 0
KAM3 090508Z 22003KT 05/05 A3027 RMK A01 T00480048  RH  100%=      5-min Rain = 0
KAM3 090509Z 22004KT 05/05 A3027 RMK A01 T00480048  RH  100%=      5-min Rain = 0
KAM3 090510Z 22004KT 05/05 A3027 RMK A01 T00480048  RH  100%=      5-min Rain = 0
KAM3 090511Z 22003KT 05/05 A3027 RMK A01 T00480048  RH  100%=      5-min Rain = 0
KAM3 090512Z 22003KT 05/05 A3027 RMK A01 T00490049  RH  100%=      5-min Rain = 0
KAM3 090513Z 23004KT 05/05 A3027 RMK A01 T00490049  RH  100%=      5-min Rain = 0
KAM3 090514Z 23004KT 05/05 A3027 RMK A01 T00490049  RH  100%=      5-min Rain = 0
KAM3 090515Z 23004KT 05/05 A3027 RMK A01 T00490049  RH  100%=      5-min Rain = 0
KAM3 090516Z 23004KT 05/05 A3027 RMK A01 T00490049  RH  100%=      5-min Rain = 0
KAM3 090517Z 23004KT 05/05 A3027 RMK A01 T00490049  RH  100%=      5-min Rain = 0
KAM3 090518Z 22004KT 05/05 A3027 RMK A01 T00490048  RH  100%=      5-min Rain = 0
KAM3 090519Z 22004KT 05/05 A3027 RMK A01 T00480048  RH  100%=      5-min Rain = 0
KAM3 090520Z 23004KT 05/05 A3027 RMK A01 T00480048  RH  100%=      5-min Rain = 0
KAM3 090521Z 23004KT 05/05 A3027 RMK A01 T00470047  RH  100%=      5-min Rain = 0
KAM3 090522Z 22004KT 05/05 A3027 RMK A01 T00470047  RH  100%=      5-min Rain = 0
KAM3 090523Z 23004KT 05/05 A3027 RMK A01 T00480047  RH  100%=      5-min Rain = 0
KAM3 090524Z 23005KT 05/05 A3027 RMK A01 T00480048  RH  100%=      5-min Rain = 0
KAM3 090525Z 23005KT 05/05 A3027 RMK A01 T00470047  RH  100%=      5-min Rain = 0
KAM3 090526Z 23005KT 05/05 A3027 RMK A01 T00460046  RH  100%=      5-min Rain = 0
KAM3 090527Z 22006KT 05/05 A3026 RMK A01 T00460046  RH  100%=      5-min Rain = 0
KAM3 090528Z 22006KT 05/05 A3026 RMK A01 T00450045  RH  100%=      5-min Rain = 0
KAM3 090529Z 22006KT 04/04 A3026 RMK A01 T00440044  RH  100%=      5-min Rain = 0
KAM3 090530Z 22006KT 04/04 A3026 RMK A01 T00420042  RH  100%=      5-min Rain = 0
KAM3 090531Z 22006KT 04/04 A3026 RMK A01 T00400040  RH  100%=      5-min Rain = 0
KAM3 090532Z 22006KT 04/04 A3026 RMK A01 T00390039  RH  100%=      5-min Rain = 0
KAM3 090533Z 22006KT 04/04 A3027 RMK A01 T00380038  RH  100%=      5-min Rain = 0
KAM3 090534Z 22006KT 04/04 A3026 RMK A01 T00370037  RH  100%=      5-min Rain = 0
KAM3 090535Z 22006KT 04/04 A3026 RMK A01 T00370037  RH  100%=      5-min Rain = 0
KAM3 090536Z 22006KT 04/04 A3026 RMK A01 T00370037  RH  100%=      5-min Rain = 0
KAM3 090537Z 22006KT 04/04 A3026 RMK A01 T00370037  RH  100%=      5-min Rain = 0
KAM3 090538Z 22007KT 04/04 A3026 RMK A01 T00370037  RH  100%=      5-min Rain = 0
KAM3 090539Z 22007KT 04/04 A3026 RMK A01 T00380038  RH  100%=      5-min Rain = 0
KAM3 090540Z 22006KT 04/04 A3026 RMK A01 T00370037  RH  100%=      5-min Rain = 0
KAM3 090541Z 22006KT 04/04 A3026 RMK A01 T00370036  RH  100%=      5-min Rain = 0
KAM3 090542Z 22007KT 04/04 A3026 RMK A01 T00360036  RH  100%=      5-min Rain = 0
KAM3 090543Z 22007KT 04/04 A3026 RMK A01 T00350035  RH  100%=      5-min Rain = 0
KAM3 090544Z 22006KT 03/03 A3026 RMK A01 T00340034  RH  100%=      5-min Rain = 0
KAM3 090545Z 22006KT 03/03 A3026 RMK A01 T00340034  RH  100%=      5-min Rain = 0
KAM3 090546Z 22006KT 03/03 A3026 RMK A01 T00330033  RH  100%=      5-min Rain = 0
KAM3 090547Z 22007KT 03/03 A3026 RMK A01 T00330033  RH  100%=      5-min Rain = 0
KAM3 090548Z 23006KT 03/03 A3026 RMK A01 T00330033  RH  100%=      5-min Rain = 0
KAM3 090549Z 22006KT 03/03 A3026 RMK A01 T00330033  RH  100%=      5-min Rain = 0
KAM3 090550Z 23006KT 03/03 A3026 RMK A01 T00330033  RH  100%=      5-min Rain = 0
KAM3 090551Z 23006KT 03/03 A3026 RMK A01 T00330033  RH  100%=      5-min Rain = 0
KAM3 090552Z 23006KT 03/03 A3026 RMK A01 T00330032  RH  100%=      5-min Rain = 0
KAM3 090553Z 23006KT 03/03 A3026 RMK A01 T00320032  RH  100%=      5-min Rain = 0
KAM3 090554Z 23005KT 03/03 A3026 RMK A01 T00320032  RH  100%=      5-min Rain = 0
KAM3 090555Z 23005KT 03/03 A3026 RMK A01 T00320032  RH  100%=      5-min Rain = 0
KAM3 090556Z 23005KT 03/03 A3026 RMK A01 T00320032  RH  100%=      5-min Rain = 0
KAM3 090557Z 23005KT 03/03 A3026 RMK A01 T00320032  RH  100%=      5-min Rain = 0
KAM3 090558Z 23005KT 03/03 A3026 RMK A01 T00330032  RH  100%=      5-min Rain = 0
KAM3 090559Z 24005KT 03/03 A3026 RMK A01 T00330033  RH  100%=      5-min Rain = 0

Page generated in 0.081 seconds.